GFSCGP_sfc_temp_000.txt.gz
Temp
59 52 50 56 59 61 59 55 53 60 63 55 53 55 59 62 63 63 65 66 65 64 66 66 64 59 57 56 55 53 51 50 51 48 44 42 43 42 42 43 45 44 45 44
53 49 60 62 61 56 54 52 53 60 61 53 51 52 58 59 61 64 64 65 64 61 62 58 57 56 56 55 54 53 52 51 51 49 46 44 44 42 42 43 43 44 43 42
53 57 62 59 55 54 53 49 51 52 56 51 47 45 49 55 61 62 63 65 61 61 61 55 55 54 54 54 54 53 52 52 51 48 46 43 42 41 40 40 39 41 41 40
55 62 60 56 54 56 49 56 53 52 46 38 48 40 49 53 57 57 61 64 58 59 60 57 54 52 53 53 53 53 52 51 51 48 45 43 40 38 39 41 39 39 40 40
52 51 50 50 53 57 50 49 47 46 42 39 41 38 45 54 52 56 60 64 60 61 58 55 54 54 53 52 52 52 51 51 50 48 45 42 38 40 42 40 37 36 37 38
52 53 51 52 49 50 50 46 45 42 40 32 43 43 41 48 53 55 59 62 62 54 53 54 53 52 52 50 49 50 50 50 49 46 43 42 41 39 39 35 35 34 35 35
48 50 49 51 47 46 46 42 30 28 26 34 47 40 51 53 57 59 59 61 60 54 51 51 50 50 49 48 48 48 48 48 47 44 42 42 41 41 39 38 36 34 33 33
43 43 48 50 51 48 42 45 31 24 32 40 34 35 47 58 62 61 62 61 56 53 52 50 50 50 50 49 47 47 46 47 45 43 41 42 40 41 40 38 37 34 33 33
44 46 46 49 50 52 44 38 47 34 27 28 43 48 54 56 57 57 57 55 53 52 52 51 50 50 48 47 47 47 46 46 45 43 41 41 41 38 37 35 34 33 32 35
50 44 50 44 45 45 44 46 35 35 23 21 40 41 47 54 58 54 51 52 52 52 51 50 50 49 49 49 48 47 46 45 44 42 41 41 39 36 35 33 32 31 31 31
49 47 44 42 39 43 37 38 40 43 36 28 31 42 50 52 52 52 52 53 53 53 52 51 50 49 49 47 47 45 44 43 42 40 39 37 35 34 33 33 31 30 30 29
50 45 36 45 51 46 48 46 47 39 36 34 40 42 58 53 54 54 55 57 57 55 55 53 51 49 48 47 45 44 43 42 41 39 37 36 34 33 32 31 30 29 28 27
46 38 29 35 45 42 40 45 48 48 44 39 34 40 60 62 61 56 54 53 55 56 54 53 50 48 48 47 45 44 43 42 39 37 36 34 33 32 31 30 29 28 26 25
47 37 35 32 39 46 40 41 42 44 38 38 39 43 52 57 58 61 61 61 54 53 55 53 50 48 48 47 46 44 42 41 39 37 35 33 31 31 30 29 27 26 25 23
43 31 34 39 42 40 38 41 43 41 42 36 43 45 51 56 58 60 62 59 59 57 58 54 51 49 48 44 44 43 43 40 39 36 33 31 30 29 28 25 23 22 21 22
42 33 32 31 36 37 34 40 41 41 42 44 45 43 55 58 59 59 59 60 58 57 59 58 50 45 42 42 44 42 41 38 37 34 31 31 27 25 23 20 20 19 18 18
34 33 31 28 35 33 28 34 38 40 44 44 39 47 56 55 56 57 59 60 59 57 57 50 48 46 42 41 41 40 40 36 33 30 27 26 24 22 20 19 18 17 17 18
37 34 34 30 34 22 36 45 44 41 44 47 47 50 53 54 58 59 57 54 55 56 56 53 44 45 44 41 37 36 35 33 30 28 26 23 22 20 18 17 17 17 17 16
45 38 32 28 28 35 37 43 41 39 39 48 47 49 52 54 53 53 59 59 58 57 57 55 46 45 44 38 36 34 31 29 27 25 23 21 21 18 17 15 15 15 15 14
40 41 34 31 27 24 38 46 51 50 34 49 51 50 49 50 40 47 57 56 49 50 48 46 43 42 38 34 34 31 27 25 24 24 23 21 20 17 15 15 14 14 14 14
31 32 29 30 28 32 40 46 46 30 37 52 53 52 51 47 50 55 52 48 46 46 46 41 39 38 36 33 31 28 25 24 25 23 21 18 17 15 15 13 13 12 12 13
30 28 28 32 28 25 38 41 36 37 40 39 38 40 39 41 44 43 44 43 43 42 37 35 35 34 32 30 29 26 23 25 23 20 16 15 14 13 13 12 10 9 10 9
24 25 21 24 26 36 38 34 39 40 34 35 36 37 38 37 39 40 40 40 40 40 38 33 29 27 28 26 27 24 24 22 18 15 13 10 10 9 9 8 7 8 8 10
27 34 26 24 32 33 37 42 41 40 36 37 37 37 40 39 40 37 40 41 38 32 34 24 23 22 21 21 24 23 21 19 15 12 10 8 7 6 7 10 10 10 9 11
25 28 23 24 31 34 37 39 39 38 37 33 35 36 38 38 37 38 39 39 39 35 27 24 26 27 28 23 23 21 18 16 13 11 9 8 8 7 7 10 11 12 13 13
29 26 23 21 33 32 32 34 35 27 26 28 30 29 32 33 34 37 37 37 37 38 36 26 26 26 26 23 22 17 16 15 13 12 9 8 7 8 9 9 11 17 16 19

GFSCGP_sfc_temp_003.txt.gz
Temp
54 47 45 54 51 52 49 46 45 54 58 53 54 53 58 60 55 54 56 60 63 61 64 60 60 60 57 54 52 51 50 50 50 47 44 42 42 39 39 40 41 41 41 41
48 45 55 55 53 51 49 47 47 55 56 51 51 52 56 53 57 60 60 61 63 59 58 58 54 53 54 52 52 51 51 50 51 49 48 42 42 38 39 40 40 41 40 40
51 52 57 55 51 49 51 47 50 48 52 49 46 43 48 53 54 59 61 62 63 58 56 53 49 51 52 51 49 50 50 50 50 48 45 40 39 38 37 37 39 39 39 38
48 57 55 49 49 52 49 52 52 47 41 41 43 39 46 49 51 53 57 61 57 53 55 52 51 47 50 51 51 51 50 49 49 46 46 42 44 40 42 43 40 38 38 37
49 48 46 48 53 52 51 49 46 42 39 36 39 36 41 49 48 54 60 63 61 54 55 52 52 54 51 50 50 50 48 48 48 46 47 43 42 43 38 38 37 36 35 36
47 48 49 50 47 50 48 43 42 39 36 32 38 40 43 44 50 52 59 62 63 55 53 53 52 49 48 48 49 48 47 47 47 46 45 44 42 37 37 37 36 36 35 34
43 46 46 50 44 44 43 40 28 27 23 32 43 35 49 50 53 56 59 61 62 53 50 48 47 48 47 45 47 47 46 45 46 45 43 44 42 41 39 38 38 35 34 31
38 42 45 48 50 44 40 42 30 23 29 39 30 32 45 54 58 57 60 63 56 50 50 49 48 48 46 46 45 47 44 45 44 44 42 42 40 42 40 39 38 37 36 35
39 42 44 45 45 50 41 37 47 32 19 25 41 44 51 53 54 54 56 49 52 49 47 48 46 47 45 45 45 46 45 46 44 43 42 41 40 41 40 38 37 36 35 35
49 41 48 42 44 44 43 44 33 32 24 21 38 34 45 51 57 58 52 50 49 48 48 47 46 46 46 47 46 45 46 45 44 42 42 41 40 41 40 36 35 33 33 33
47 45 44 41 39 41 40 38 40 40 34 34 32 40 50 46 53 56 51 49 49 50 48 48 47 48 47 46 44 44 43 42 41 40 40 39 38 38 36 36 35 33 33 31
44 41 32 39 46 45 45 42 43 37 33 32 36 40 57 49 49 50 51 53 49 51 52 48 48 46 43 45 43 43 43 42 42 40 37 38 35 35 35 35 32 31 31 30
44 34 28 32 41 41 42 43 44 44 36 33 29 36 58 59 57 52 51 52 53 54 54 50 47 46 47 46 44 44 43 42 40 36 35 35 34 33 33 31 30 30 29 27
47 35 32 31 39 42 34 37 40 43 35 38 37 41 49 54 55 59 60 62 63 56 58 54 51 47 45 45 45 44 42 41 38 36 35 34 34 33 32 30 29 29 28 26
45 33 34 37 40 40 39 38 41 38 41 36 40 41 47 52 55 57 60 61 57 52 52 54 53 50 47 46 44 43 43 39 37 36 35 34 34 33 30 28 27 24 24 24
46 35 38 33 36 35 32 40 40 39 40 41 42 42 54 56 58 56 58 59 57 58 60 57 51 49 46 44 46 43 42 38 37 36 34 34 30 27 26 25 23 23 22 20
38 34 33 30 36 35 30 35 38 40 43 42 36 44 53 53 54 55 57 58 58 58 59 55 51 48 46 44 43 40 40 35 34 33 31 28 27 25 25 24 23 22 20 20
35 32 32 30 32 23 34 43 41 40 43 46 46 48 52 53 55 57 59 57 57 58 58 49 45 46 44 43 38 40 33 34 34 31 29 26 26 25 23 22 21 20 19 17
40 36 31 28 28 33 38 39 40 38 38 46 45 47 50 51 52 51 56 52 54 54 56 57 48 47 44 43 41 35 33 32 31 29 28 25 25 23 21 20 19 19 17 16
37 39 34 32 25 22 39 42 47 46 32 32 33 33 34 37 34 38 43 43 42 44 45 44 45 42 42 39 34 33 31 30 29 29 28 25 24 21 19 20 18 17 16 15
30 31 28 29 26 29 32 34 39 28 23 32 32 32 31 31 34 37 39 40 42 40 39 39 38 36 36 32 29 29 27 28 29 26 24 22 22 20 20 18 17 14 14 15
23 20 21 26 25 22 34 33 23 27 32 31 31 32 31 34 35 37 38 39 41 40 40 38 35 35 33 29 27 26 27 25 23 23 20 20 20 19 17 15 13 13 13 12
18 22 18 20 20 28 34 34 38 34 30 30 31 32 32 32 33 35 36 37 38 39 38 40 35 31 31 25 27 28 24 22 20 19 18 17 15 14 13 12 11 11 11 11
23 29 23 21 28 30 33 37 37 35 31 29 29 28 30 30 31 30 32 34 35 36 37 38 37 37 36 28 27 29 24 22 19 15 15 13 12 11 11 13 12 12 11 12
22 26 19 21 27 30 32 34 31 30 28 27 27 27 27 25 25 27 27 28 32 33 35 36 35 34 36 34 28 28 22 22 19 17 13 12 12 11 10 12 13 13 15 17
27 25 21 19 30 25 27 27 28 22 22 22 22 20 23 22 21 23 24 25 26 26 29 31 33 31 33 35 30 28 24 21 18 15 12 12 11 11 11 11 12 20 19 22

GFSCGP_sfc_temp_006.txt.gz
Temp
50 45 44 53 48 54 44 42 42 48 56 48 48 51 56 62 55 50 55 59 62 64 69 62 57 57 55 54 53 52 51 50 50 47 44 43 44 41 38 39 41 40 40 39
45 41 52 55 50 48 47 46 46 52 54 47 50 50 57 56 60 62 61 61 60 62 66 55 55 51 52 53 52 51 51 49 51 51 50 46 44 38 42 40 41 41 39 38
50 52 53 51 48 46 46 44 47 46 48 45 43 46 46 52 56 60 55 60 63 65 66 58 52 49 48 49 49 50 51 50 51 50 45 39 38 37 36 37 38 38 38 37
45 53 52 46 46 50 46 50 49 45 39 40 42 39 45 49 52 54 55 58 58 61 60 58 51 46 46 49 49 50 50 50 50 48 45 42 46 43 42 42 38 36 37 37
47 47 45 44 50 49 49 48 46 41 36 34 34 33 41 48 46 52 60 58 62 65 55 54 50 51 48 46 47 49 48 49 48 46 47 44 44 45 37 35 35 36 34 36
46 46 47 48 47 48 46 43 41 36 35 33 39 38 42 41 48 51 57 61 62 65 57 53 50 47 44 43 45 46 46 46 44 45 45 44 44 38 37 36 37 36 35 34
41 43 43 48 43 43 44 41 29 26 22 29 41 33 50 50 55 54 59 61 62 63 51 48 47 45 44 43 43 44 44 44 43 43 44 44 44 40 41 38 38 36 35 34
36 40 44 46 47 43 41 43 34 22 28 39 30 32 45 53 56 57 56 57 57 55 51 50 47 47 46 45 43 45 43 44 44 43 44 44 44 40 42 39 39 38 37 37
38 41 44 44 45 49 38 35 47 33 17 21 40 43 51 47 53 52 53 53 53 52 50 48 45 44 43 42 44 45 44 44 44 43 43 42 43 40 41 38 38 38 36 34
44 38 46 41 43 42 43 45 33 31 25 22 34 34 44 48 50 50 51 54 53 49 45 45 45 45 42 43 44 44 45 45 43 42 42 41 41 40 40 35 35 35 33 33
45 41 40 39 38 41 38 39 39 39 34 33 31 38 46 47 45 48 52 56 48 49 48 47 46 45 43 42 41 42 42 40 39 40 41 40 38 38 36 35 34 33 33 33
45 39 31 37 45 42 43 44 46 37 33 32 33 37 55 56 55 56 55 57 52 49 50 49 48 45 42 42 41 43 43 42 43 41 40 38 38 36 35 35 34 33 33 32
44 36 32 32 39 42 38 42 44 43 40 37 30 34 57 58 55 56 53 57 54 53 51 51 50 48 49 46 44 44 43 43 42 39 38 36 35 36 37 35 32 32 32 31
47 40 36 32 39 41 37 38 39 42 36 37 37 41 50 53 55 58 57 58 54 58 56 56 56 53 49 48 47 44 43 42 40 38 37 37 35 36 36 35 33 33 32 30
44 34 35 38 41 42 42 41 42 40 42 36 41 42 48 53 55 57 59 60 56 52 53 58 56 56 53 45 46 45 45 42 40 38 36 37 37 36 35 31 31 31 30 29
38 33 35 33 37 35 34 40 41 41 42 41 41 41 53 55 57 55 57 58 57 57 55 55 53 52 48 48 50 44 45 41 38 37 36 37 34 32 30 29 29 28 28 26
33 32 31 28 32 31 28 35 35 39 42 41 35 43 43 41 44 50 51 42 39 42 43 43 44 46 47 50 48 45 44 39 35 35 35 32 31 29 28 28 27 26 25 25
33 31 32 27 30 20 35 40 41 38 41 44 38 32 32 32 35 37 38 37 37 39 40 42 42 44 44 47 45 43 35 34 35 34 32 30 29 27 26 26 25 26 25 23
38 33 28 24 25 33 37 35 31 30 31 29 29 29 30 31 34 36 39 39 38 40 41 41 41 42 41 40 39 36 29 30 31 31 31 30 29 27 25 24 25 25 24 23
35 34 28 24 17 17 22 28 31 32 26 26 28 28 28 29 22 27 36 38 38 40 41 40 40 40 39 40 34 29 27 25 28 29 29 28 28 26 25 25 24 24 23 22
9 11 14 19 18 23 27 31 36 20 18 29 28 29 29 27 29 33 35 37 37 37 38 40 38 37 38 36 32 32 25 25 24 24 22 22 23 23 23 23 22 21 21 19
17 14 11 14 8 11 30 28 20 27 33 31 31 31 28 29 31 33 35 33 33 33 35 36 35 35 37 37 31 33 31 25 21 21 20 20 20 21 21 18 18 18 18 16
11 18 11 17 17 30 32 31 35 32 26 27 26 27 26 26 28 29 28 29 29 30 31 32 32 33 35 36 32 29 33 21 18 21 21 20 16 18 19 18 16 15 16 16
20 27 17 16 25 26 31 34 34 32 28 28 27 25 25 24 24 25 26 26 26 27 26 28 27 28 29 33 34 33 33 25 21 21 20 18 17 16 16 17 16 16 16 16
21 23 19 20 26 29 30 30 28 29 27 26 26 24 23 22 22 23 22 21 23 22 22 23 21 21 22 26 31 34 34 24 22 21 19 17 17 15 16 17 16 17 18 20
27 24 20 18 29 29 30 32 28 24 23 22 21 20 22 21 20 20 19 21 20 18 19 17 16 18 19 22 23 25 30 24 23 20 18 16 16 15 15 15 14 22 21 23

GFSCGP_sfc_temp_009.txt.gz
Temp
48 44 42 51 47 52 42 41 40 46 53 44 47 49 53 59 58 59 53 57 61 61 67 68 58 54 53 51 52 53 51 51 50 46 44 44 45 42 40 40 42 41 40 39
42 40 51 51 48 45 43 43 43 50 53 45 47 48 52 54 56 60 62 62 63 64 65 65 54 51 50 53 52 51 51 50 51 50 51 46 48 39 41 39 39 40 39 38
48 49 51 48 46 44 43 41 46 45 45 44 42 45 49 50 52 58 61 62 63 62 62 64 53 50 48 47 49 50 51 49 51 50 45 37 37 36 35 35 38 39 38 37
44 50 50 44 43 47 44 47 47 43 37 37 41 37 42 52 54 55 56 59 58 59 61 59 53 48 48 50 47 49 49 48 50 48 46 43 45 43 43 44 41 38 37 37
45 43 41 42 47 46 46 46 44 38 34 33 34 31 37 46 48 50 54 56 59 59 59 60 51 51 49 44 44 46 47 47 48 47 47 45 46 46 38 36 35 36 34 36
44 44 47 47 45 46 45 41 38 33 34 28 37 36 40 41 48 48 52 57 57 57 62 54 51 48 43 40 42 44 44 45 45 46 46 45 46 40 38 36 37 36 36 34
39 41 42 47 42 40 42 37 28 25 22 28 37 32 49 52 57 53 58 54 56 55 54 59 50 46 42 39 40 42 43 43 42 43 44 44 45 42 41 38 39 36 35 34
35 38 43 45 46 42 38 39 28 20 25 36 30 31 48 52 53 49 51 52 51 51 54 49 51 46 41 41 40 43 41 43 42 43 43 43 43 42 41 39 40 38 38 38
35 36 40 43 44 49 38 34 43 32 21 23 39 42 51 47 50 47 49 47 50 55 53 48 47 43 41 39 39 41 42 42 42 42 43 42 42 39 40 37 38 38 37 37
45 36 44 40 40 41 42 43 32 29 22 23 32 38 42 47 54 53 49 50 52 52 50 47 45 44 41 40 41 41 41 42 41 41 42 42 41 40 40 36 36 36 36 35
44 38 38 40 37 42 35 35 36 37 33 31 29 34 53 50 47 48 49 50 51 51 53 50 47 46 45 41 40 41 41 39 39 39 40 41 40 39 39 37 37 36 35 34
44 38 31 36 41 41 41 39 39 32 32 36 37 38 56 57 55 52 51 55 53 52 54 52 50 49 46 45 43 41 42 40 41 41 40 40 39 37 38 37 36 36 34 33
43 35 30 31 35 34 33 40 41 42 39 32 29 36 56 57 57 57 51 48 50 52 55 55 51 52 49 49 44 42 41 41 41 39 38 37 37 35 37 37 35 34 34 33
44 38 34 29 31 39 35 38 41 39 33 34 36 40 47 51 54 57 58 52 51 45 42 42 42 43 44 46 48 46 45 42 38 36 36 37 37 37 38 38 34 34 34 32
41 32 34 36 37 36 35 34 35 36 40 34 38 39 46 50 52 44 44 41 39 38 39 41 41 42 43 43 44 46 48 42 37 37 37 38 38 38 37 36 33 33 32 33
37 29 33 30 35 35 32 34 33 33 33 33 35 36 41 32 32 34 34 36 36 37 39 41 41 41 40 41 41 41 43 44 36 38 38 39 37 34 35 34 32 31 31 30
31 30 26 22 30 29 24 31 35 38 38 33 27 25 28 28 28 30 30 34 35 37 39 39 40 40 39 39 40 40 39 39 39 36 39 35 31 31 32 31 30 30 29 29
29 26 25 21 24 12 29 36 33 30 26 27 27 26 27 28 32 35 36 35 34 35 37 38 38 38 38 38 38 38 37 36 35 36 36 30 32 32 30 28 28 28 29 28
33 29 20 9 8 24 30 27 23 22 21 27 25 26 27 31 33 34 37 37 36 36 37 37 37 38 38 37 36 34 34 34 32 32 30 29 28 30 27 27 27 28 28 27
31 32 25 6 10 8 21 26 30 31 20 28 25 27 25 26 20 25 34 35 34 34 33 33 34 35 35 35 35 33 32 33 32 29 29 26 25 25 26 27 26 27 28 26
5 4 4 -1 2 11 20 26 30 8 14 28 26 25 24 24 28 31 32 32 32 30 29 31 31 30 33 34 34 32 33 32 30 25 22 19 20 21 22 25 25 24 24 24
14 3 -0 -3 -4 3 28 28 19 23 28 29 28 28 27 27 29 30 30 29 29 28 29 31 28 28 30 30 29 28 30 33 30 24 21 20 17 19 19 19 17 21 22 21
9 17 8 12 12 27 32 29 32 30 27 26 27 27 27 25 25 27 25 25 26 27 28 27 24 23 25 25 25 23 25 28 32 31 27 23 22 20 21 20 19 19 19 18
20 27 18 15 27 27 29 32 33 33 30 30 28 26 25 23 25 24 25 25 25 24 22 23 21 19 19 21 22 22 23 25 24 26 28 23 20 19 19 20 19 19 17 18
23 22 18 19 27 28 30 32 32 31 28 27 26 25 24 22 23 23 22 21 21 21 21 20 17 17 16 17 17 19 19 20 19 22 26 23 20 19 18 19 18 19 20 21
27 24 20 18 29 28 29 33 31 26 26 24 22 21 22 22 20 20 18 20 19 18 18 15 14 13 13 13 13 14 15 15 15 16 20 23 20 19 18 18 17 24 24 24

GFSCGP_sfc_temp_012.txt.gz
Temp
47 42 41 49 46 46 40 39 39 43 50 43 50 51 53 55 54 57 60 59 60 60 65 66 60 56 52 49 51 52 50 52 50 48 44 43 45 42 41 43 43 42 42 40
41 38 48 47 45 44 41 41 42 47 50 43 44 46 53 55 57 59 59 61 61 62 63 64 57 52 49 51 50 50 50 50 50 50 49 46 49 42 45 41 41 42 40 40
44 47 48 46 42 43 40 38 44 42 43 42 40 41 42 49 50 56 58 60 57 59 60 62 55 52 49 46 46 49 50 49 51 49 45 36 37 35 35 35 38 38 40 39
42 46 47 40 42 44 42 46 45 42 37 32 40 35 42 48 51 50 54 53 53 56 55 54 53 49 50 51 46 47 47 47 49 48 45 46 46 44 44 45 43 40 39 38
43 41 40 40 44 44 43 44 42 37 34 31 31 30 37 42 45 49 52 53 53 52 52 54 55 52 50 47 43 43 45 45 48 47 46 46 47 48 40 39 39 38 37 37
42 42 44 46 44 45 44 39 37 32 32 27 35 35 38 39 45 46 54 54 56 54 55 55 53 49 47 41 39 40 42 43 44 45 45 46 47 38 39 36 38 36 35 35
37 40 41 44 39 39 40 36 27 24 21 27 33 30 44 47 52 52 53 54 54 52 51 49 51 48 46 40 38 39 39 40 40 42 44 44 45 40 42 38 40 37 35 36
34 37 42 43 45 42 37 38 28 22 22 35 28 31 45 49 52 52 51 51 49 48 49 48 48 44 42 40 38 39 38 39 38 40 41 41 42 41 42 39 40 38 38 39
34 35 39 42 42 45 36 34 40 33 26 24 37 40 50 48 46 46 48 48 48 48 49 49 49 45 42 39 39 39 38 39 38 38 38 38 39 38 39 36 37 38 39 38
43 37 42 40 40 40 41 42 32 30 24 20 31 33 39 47 49 51 52 51 47 51 57 53 50 47 43 40 39 39 38 39 38 38 40 41 40 40 39 36 37 37 37 36
43 39 37 38 35 38 36 36 36 37 33 27 26 34 52 50 49 46 47 48 50 55 51 46 45 45 44 42 40 38 37 37 36 36 37 37 36 36 37 36 37 37 36 35
44 38 31 35 39 41 40 42 40 32 29 30 33 33 50 52 54 55 48 45 38 39 40 41 41 41 42 43 44 43 40 38 38 37 36 35 36 35 35 35 36 36 35 34
42 35 29 30 33 34 33 37 40 40 37 30 26 31 51 53 53 34 37 37 38 39 40 41 41 42 42 42 42 42 42 41 41 39 35 35 35 34 36 37 37 35 36 34
42 34 32 28 34 37 33 37 38 34 29 30 30 32 41 41 39 33 35 36 37 38 39 40 40 40 41 41 41 41 40 40 38 37 35 35 35 36 38 38 36 35 35 34
38 31 34 36 35 33 31 30 33 31 33 28 31 33 34 29 28 31 32 34 34 35 37 38 38 38 38 38 39 40 40 38 38 37 38 38 36 35 36 36 35 33 34 34
36 27 29 26 31 32 29 32 32 32 32 32 32 30 29 31 32 31 30 30 32 33 35 38 37 37 37 37 37 36 38 37 36 35 35 37 35 33 32 34 33 31 32 32
30 28 24 21 28 25 20 27 30 32 36 29 24 23 24 25 29 32 31 32 34 33 34 35 36 36 35 36 37 35 35 35 33 34 34 34 34 33 32 30 30 30 30 31
29 26 24 21 20 12 27 30 29 26 26 26 24 22 24 26 30 32 34 32 33 34 34 35 34 34 34 34 34 34 34 33 33 32 32 32 31 31 31 28 29 29 29 30
32 27 14 11 5 19 27 24 22 20 20 25 26 28 28 28 26 28 33 32 31 33 33 32 31 31 31 31 32 31 30 31 32 32 31 31 30 29 28 28 28 29 28 29
29 28 24 7 10 -1 19 24 28 27 14 20 21 24 23 25 17 23 30 31 30 30 30 29 28 28 28 29 30 27 26 27 28 30 30 29 28 26 26 26 25 28 28 29
3 1 11 7 2 8 19 25 28 7 12 18 21 23 23 21 24 28 31 29 29 29 28 28 27 27 29 29 27 24 25 24 26 25 25 29 28 26 25 24 20 22 25 26
14 3 -3 -5 -3 1 26 26 18 22 27 26 26 29 27 28 29 29 28 27 27 26 27 28 27 26 28 27 24 23 22 25 23 23 24 24 26 27 25 21 20 17 21 22
10 16 7 11 10 26 29 27 33 30 24 26 27 30 28 27 27 27 26 26 26 26 27 27 21 22 24 22 21 18 20 20 20 19 19 20 23 26 23 23 21 20 20 19
21 25 21 21 26 27 30 33 31 31 31 32 31 30 27 25 26 26 26 26 25 24 22 22 20 19 18 20 19 17 18 17 15 14 14 16 17 20 25 22 23 21 20 19
23 21 17 20 27 29 30 31 33 33 32 30 28 27 25 23 24 24 23 22 22 21 21 20 18 17 17 18 16 15 14 13 10 10 11 12 14 16 22 22 22 21 23 23
27 24 20 18 29 28 30 33 33 29 28 25 23 21 22 22 21 21 19 20 19 18 18 17 15 14 14 13 12 11 11 9 7 7 8 10 12 14 17 21 21 26 27 27

GFSCGP_sfc_temp_015.txt.gz
Temp
47 43 41 48 46 45 42 40 39 44 50 44 50 50 53 56 56 57 60 62 62 62 66 63 61 60 58 54 54 55 53 54 54 53 50 48 48 50 48 50 50 49 50 48
42 39 48 47 45 44 42 40 41 45 49 43 44 47 54 56 57 59 59 61 58 59 62 61 58 58 56 56 53 52 53 53 53 54 53 54 53 51 50 50 48 49 48 47
43 46 48 46 43 43 39 39 43 41 42 43 40 41 43 53 50 53 57 56 56 55 56 59 58 56 55 54 52 51 52 52 53 53 52 43 44 43 44 44 44 45 46 45
41 46 46 41 42 43 40 45 43 40 37 34 42 34 40 50 53 50 53 54 54 54 56 56 54 56 53 52 51 49 50 50 51 52 49 49 50 47 47 49 47 46 45 45
43 41 39 40 43 44 42 42 40 38 35 33 34 32 39 44 46 51 54 55 55 54 53 53 54 53 52 47 45 46 47 48 50 49 49 49 49 51 48 49 45 44 43 44
42 43 44 45 43 44 44 40 38 33 34 28 36 35 37 41 47 48 56 55 54 53 53 58 54 50 48 45 42 43 44 44 46 47 47 48 48 45 45 44 43 42 41 41
39 40 41 44 40 40 41 38 29 27 23 28 34 31 41 47 50 52 54 55 52 51 51 52 52 48 47 44 41 42 42 43 43 44 45 46 47 44 45 44 44 41 40 39
35 37 41 44 45 42 39 40 34 22 24 34 28 32 43 48 50 51 48 50 50 51 50 48 46 45 44 44 43 42 41 41 42 42 42 43 43 43 44 44 44 43 42 42
34 35 39 41 42 47 37 36 43 33 28 25 36 40 51 47 49 48 49 46 41 41 41 42 43 43 43 43 43 41 40 40 41 41 41 41 41 41 42 40 41 42 42 43
42 34 42 40 40 40 42 43 33 31 24 23 32 31 38 43 43 44 36 35 37 39 40 41 42 42 43 43 44 44 43 41 40 40 40 41 40 40 40 39 39 39 40 40
43 37 36 38 36 38 35 35 37 38 33 25 26 32 43 40 35 33 35 36 37 38 39 40 41 42 43 43 43 42 42 42 41 42 40 39 39 39 38 37 38 39 38 38
43 37 31 36 40 39 40 40 39 31 28 29 31 31 50 38 37 35 34 36 37 38 39 40 41 41 41 41 41 41 41 40 40 40 40 39 39 37 37 38 38 38 37 37
41 35 29 29 34 34 35 38 39 37 32 29 26 31 45 43 35 36 33 34 35 37 39 40 41 40 39 40 40 40 40 39 39 38 38 39 39 38 37 37 38 36 38 37
42 34 32 28 34 35 31 33 35 33 29 30 31 33 40 36 30 31 31 33 34 35 37 38 38 38 38 39 39 39 39 39 38 37 37 37 37 37 38 38 38 36 36 37
37 30 33 34 36 31 30 29 30 28 30 25 30 30 38 31 28 30 32 33 34 34 35 36 37 37 37 37 38 38 38 37 37 35 35 36 36 36 36 35 36 36 34 36
34 28 27 23 31 32 29 31 31 31 31 31 31 31 29 30 31 30 32 31 32 33 34 35 35 35 34 34 34 34 35 34 34 34 33 34 34 34 34 34 34 34 33 34
29 26 26 22 27 23 17 25 29 31 33 31 25 23 23 23 28 29 29 31 31 32 33 33 33 33 32 32 32 31 32 32 30 31 33 32 31 31 31 32 32 31 32 33
28 25 25 20 13 12 27 26 28 27 25 22 22 23 26 28 31 31 33 32 32 32 32 32 31 31 31 31 30 30 30 28 28 28 28 30 29 28 29 29 30 31 31 31
30 27 14 14 15 21 26 26 23 22 20 22 20 23 28 29 27 26 32 33 32 31 31 32 31 30 29 29 29 27 27 26 27 27 26 26 25 25 28 27 28 29 29 29
28 28 23 10 7 -3 19 23 25 26 11 20 17 19 21 25 17 24 30 32 31 31 31 30 29 28 28 29 29 26 25 24 24 25 25 24 23 25 24 26 26 28 28 28
2 4 16 15 12 12 19 24 27 7 12 18 19 22 22 22 26 31 30 30 30 29 29 28 26 27 28 28 24 23 23 22 24 24 22 21 21 21 22 23 26 26 26 27
13 2 -5 -8 -2 4 25 24 17 22 26 26 25 27 27 29 30 30 31 30 29 27 28 29 27 27 29 28 23 22 21 24 20 19 18 17 17 18 19 19 21 24 24 23
11 16 9 12 11 25 28 26 31 32 26 28 26 29 27 28 28 30 28 27 27 27 28 28 23 23 25 24 19 18 20 20 17 15 14 14 14 14 15 16 18 21 24 22
20 23 19 21 26 25 30 33 33 31 30 31 30 28 28 26 28 28 27 26 26 25 23 22 19 19 19 21 21 19 18 17 12 10 11 12 11 11 12 15 17 19 22 22
24 21 18 20 26 28 30 31 33 33 32 30 29 27 26 24 24 24 23 22 22 21 21 19 18 17 17 18 17 16 15 12 9 8 9 9 9 9 10 13 15 17 22 24
27 24 20 18 28 28 29 33 32 29 27 22 21 20 21 21 20 20 18 19 18 17 17 14 14 13 12 12 11 11 11 9 6 5 5 6 6 7 8 9 11 19 23 27

GFSCGP_sfc_temp_018.txt.gz
Temp
60 57 54 61 62 63 58 56 54 59 64 57 58 59 63 67 67 67 68 70 72 73 75 76 74 73 72 72 71 70 69 68 67 65 63 63 62 62 63 65 63 63 61 60
54 52 61 62 57 55 55 52 53 59 62 54 57 56 62 65 65 68 69 69 70 71 73 72 70 69 67 67 67 66 66 67 65 65 65 65 64 64 63 63 61 62 60 59
55 60 58 54 55 52 55 51 54 53 57 57 53 55 56 67 67 68 66 68 67 67 67 67 66 64 62 60 59 61 62 64 64 64 64 63 61 62 60 59 58 58 58 57
54 57 53 52 51 55 49 59 54 50 48 47 53 44 57 63 64 66 66 67 67 66 64 62 59 58 56 55 57 57 58 60 60 62 60 58 58 57 59 58 57 56 56 56
55 50 48 48 52 53 53 53 50 48 47 45 49 44 56 57 57 64 66 65 63 61 59 56 55 54 55 53 53 55 56 56 57 58 58 57 56 60 61 59 56 54 53 54
54 53 54 56 53 52 53 52 49 47 47 39 51 48 52 57 58 61 63 58 56 55 54 53 53 53 52 53 52 53 54 53 54 55 55 55 55 56 55 55 54 53 52 52
51 50 52 53 50 49 50 48 41 38 39 39 46 44 50 59 60 58 55 51 51 52 51 50 50 50 50 49 50 50 51 50 52 52 53 53 53 54 54 54 53 53 51 50
45 44 50 53 54 54 47 49 41 28 33 39 43 40 51 62 57 53 50 49 49 48 50 49 49 49 49 49 50 50 49 48 49 49 49 51 51 52 53 54 54 54 53 52
46 45 50 49 51 54 47 43 51 39 37 34 43 50 57 56 51 49 48 48 46 47 47 47 48 49 49 49 49 49 49 48 48 49 49 49 49 49 49 51 51 52 53 53
46 37 49 50 50 50 48 53 40 40 28 28 37 41 45 47 45 45 45 44 44 45 46 47 48 48 48 49 49 49 49 47 47 47 47 47 47 48 48 48 47 48 50 50
48 38 43 47 45 46 45 42 43 42 37 28 28 39 51 46 44 41 41 41 42 43 44 46 47 48 47 48 48 48 47 46 45 45 46 46 46 46 46 46 46 46 47 47
50 41 34 41 51 49 46 44 45 35 32 37 35 37 46 42 41 40 38 39 41 43 44 45 46 45 45 45 45 45 45 45 44 44 44 44 45 44 44 44 45 45 44 45
41 35 30 33 42 41 39 43 44 43 36 31 30 33 41 39 39 38 36 37 39 40 42 44 45 44 44 44 44 44 43 42 42 42 41 42 42 41 41 41 42 43 43 43
42 35 32 28 36 41 34 37 37 33 30 31 31 34 41 46 46 37 36 37 38 39 40 41 42 42 42 42 43 43 42 42 41 40 40 39 39 39 40 40 39 39 40 41
41 31 35 36 39 39 36 34 36 34 35 26 32 32 40 45 41 37 38 38 37 38 39 40 40 41 42 41 42 41 41 39 39 38 38 37 38 38 37 36 36 36 37 38
38 30 34 29 36 35 30 33 35 35 36 35 35 35 44 37 38 37 38 38 38 39 39 40 40 40 39 39 39 39 40 39 37 34 34 35 35 34 33 33 33 33 34 35
32 30 27 23 32 31 24 29 34 36 40 38 31 34 31 31 34 36 36 37 37 38 39 39 40 40 39 39 38 37 38 37 33 31 31 31 31 30 30 31 33 32 33 34
29 28 27 22 24 14 33 41 38 34 34 29 28 28 31 34 37 38 40 38 38 40 39 40 40 41 41 40 38 38 36 33 32 30 30 30 30 28 28 29 30 31 33 32
34 30 23 18 19 27 31 36 35 31 31 31 29 31 34 36 35 37 41 41 40 41 41 40 40 40 39 37 37 34 32 32 31 30 30 30 28 24 25 23 26 28 29 30
32 31 23 18 14 12 29 32 34 33 22 29 28 30 31 33 25 33 41 41 40 42 41 39 39 38 36 37 36 32 31 30 29 30 30 29 27 23 22 24 23 25 26 27
20 19 18 19 17 23 30 30 34 18 22 31 31 31 31 29 34 38 40 39 40 40 39 38 36 34 34 34 32 28 29 27 29 29 27 26 25 22 22 22 22 22 22 24
22 19 15 12 11 11 32 30 24 32 35 34 34 35 33 35 37 37 38 38 39 38 36 35 33 32 34 33 29 26 25 28 27 25 23 22 21 20 20 18 18 19 19 20
18 25 22 20 23 34 34 33 37 38 34 35 35 37 36 34 35 37 36 36 35 33 32 31 27 26 28 26 25 22 23 24 21 19 16 17 17 17 17 15 15 16 18 18
28 33 24 24 30 32 35 38 39 39 37 39 38 36 36 33 33 31 31 30 29 27 25 25 22 20 19 21 21 19 19 18 15 13 13 14 13 13 14 15 16 15 15 17
30 28 24 25 30 33 35 37 38 38 38 36 35 32 31 28 28 27 25 23 23 22 21 20 17 15 15 16 14 14 13 11 9 8 9 9 10 9 10 11 12 13 15 17
32 28 24 22 33 32 33 38 39 36 35 30 27 26 24 23 22 22 19 20 18 17 16 13 12 11 10 9 8 8 8 6 4 4 5 6 6 7 7 8 8 14 16 18

GFSCGP_sfc_temp_021.txt.gz
Temp
64 59 56 64 67 65 62 59 58 62 68 63 61 61 65 71 72 72 74 76 77 75 75 72 69 68 67 67 67 70 71 73 72 70 68 68 67 68 69 69 69 68 66 64
57 54 64 67 65 59 59 56 56 62 66 62 60 58 63 67 70 73 73 73 73 72 69 67 65 63 61 61 61 64 66 69 70 69 68 69 69 69 69 68 67 67 65 63
56 62 65 60 59 57 58 56 56 56 60 61 58 55 63 68 73 74 74 71 67 65 62 61 60 59 58 57 58 60 62 64 66 67 67 66 65 63 64 64 64 63 63 61
59 63 57 57 55 58 51 61 56 54 51 48 57 43 57 65 68 68 68 64 62 60 59 58 57 56 55 55 57 59 59 60 61 63 62 61 61 59 63 63 62 61 60 60
57 54 52 53 57 59 55 56 55 53 50 50 53 48 56 65 61 62 60 58 57 56 56 55 54 54 55 54 54 57 57 57 57 59 59 59 57 59 62 62 58 58 58 57
57 59 57 59 60 58 57 54 55 54 51 41 53 51 53 58 59 60 58 56 56 56 55 55 55 55 54 54 54 54 54 54 54 55 56 55 55 55 56 57 55 56 56 55
57 55 58 57 53 55 53 50 41 40 41 39 54 47 53 61 63 61 55 53 54 54 53 53 52 52 52 51 52 52 52 51 53 53 53 53 53 53 54 54 54 55 55 54
48 45 54 57 55 53 53 52 41 31 35 41 48 42 52 63 58 56 54 53 52 51 51 50 51 51 51 50 51 51 49 49 50 51 51 51 51 51 52 53 53 54 54 55
47 47 59 55 57 54 52 45 54 40 39 35 43 51 60 61 53 53 52 51 49 49 50 50 51 50 50 50 50 50 49 48 48 48 49 49 49 48 48 49 50 51 52 53
49 39 53 52 54 54 51 52 41 43 27 28 39 43 48 54 52 50 47 46 47 48 49 50 50 49 49 49 50 49 49 47 47 47 47 48 47 48 48 48 46 46 48 49
50 41 45 50 48 46 48 44 46 45 40 30 29 39 50 48 49 45 43 44 44 45 46 47 48 48 48 48 48 47 47 45 45 45 45 45 45 45 45 44 45 44 44 45
51 44 35 42 53 55 50 45 46 35 32 38 35 34 51 46 44 44 42 43 44 44 45 46 47 46 46 46 46 46 46 44 43 43 43 43 43 43 42 42 42 41 42 43
47 37 29 35 46 43 41 45 45 43 37 31 28 35 46 43 41 39 38 40 42 42 44 45 46 45 45 45 45 45 44 43 42 42 42 42 40 39 38 39 40 39 39 39
45 36 33 29 37 43 36 38 41 36 29 32 33 34 39 42 39 38 40 42 42 42 43 43 44 44 45 45 45 45 44 44 42 41 40 39 38 38 38 37 36 37 38 38
43 31 36 38 41 40 37 35 37 36 37 29 35 35 41 46 46 42 43 42 41 42 42 43 43 43 44 44 44 44 44 43 42 39 37 37 37 37 35 34 33 35 35 36
44 30 34 28 36 36 32 37 38 38 37 36 37 37 49 46 42 41 41 42 41 42 43 43 42 43 42 43 42 42 42 42 40 36 33 34 33 32 32 31 31 33 33 34
35 32 27 22 31 31 23 30 35 38 41 40 32 35 33 35 37 38 38 39 40 41 43 42 43 43 43 43 42 41 41 40 35 33 31 31 31 30 30 30 30 30 31 32
31 29 28 22 24 13 32 44 41 36 37 37 33 30 33 35 39 40 42 40 40 42 42 44 44 44 43 43 42 41 38 35 34 32 31 31 31 30 30 28 27 28 29 29
38 32 23 18 19 27 31 36 36 33 31 37 33 34 35 38 38 38 45 44 42 42 43 43 44 43 42 40 40 36 34 33 33 32 32 32 31 28 27 24 24 26 26 26
35 35 27 22 15 12 30 38 37 36 22 32 30 31 32 34 26 34 43 42 42 43 43 42 43 41 39 38 36 32 31 30 29 30 30 30 29 26 25 25 23 24 24 24
23 24 20 20 18 23 34 32 37 19 24 32 33 33 33 30 34 39 41 41 42 41 41 42 39 36 36 35 31 28 28 26 28 27 26 26 26 24 24 23 23 21 20 21
24 21 20 19 15 12 35 32 25 34 37 36 36 38 36 38 38 39 40 40 40 39 38 37 33 32 32 31 26 24 23 25 23 21 20 20 19 19 20 18 18 18 17 16
20 27 24 25 25 37 37 35 39 40 35 37 37 39 39 37 37 38 38 38 37 35 31 29 26 24 26 24 22 19 20 19 17 14 12 12 13 13 14 13 13 13 14 14
31 36 27 26 31 34 37 40 41 41 39 40 40 39 38 36 36 34 33 32 30 28 25 24 20 18 17 18 18 16 15 13 9 7 7 8 8 8 9 11 11 10 10 10
32 33 28 27 32 35 37 38 39 39 40 39 39 37 36 35 32 31 28 25 25 23 21 19 16 14 14 15 13 12 11 9 6 5 6 6 7 6 7 8 8 8 10 10
34 31 27 25 35 34 36 40 41 38 38 38 36 31 28 26 25 25 22 22 20 18 16 14 13 11 10 9 8 8 8 6 4 3 4 5 5 6 6 6 6 12 14 16

GFSCGP_sfc_temp_024.txt.gz
Temp
57 50 47 54 57 58 51 50 49 54 60 55 54 54 57 62 63 63 62 62 60 59 59 58 57 55 54 55 56 57 57 58 59 57 55 55 55 57 57 58 61 61 58 57
50 46 57 61 59 55 52 48 48 54 59 54 52 51 57 61 62 62 60 59 57 56 55 55 53 51 51 51 53 54 56 56 57 56 56 55 55 54 56 57 58 61 59 57
49 56 61 57 53 52 51 48 49 48 52 53 48 46 51 60 61 60 59 57 55 52 51 50 50 49 48 48 50 52 52 53 55 54 55 54 53 51 51 52 53 54 58 56
53 57 55 52 51 53 46 55 52 48 43 38 49 35 45 55 56 55 54 50 49 50 50 50 48 47 47 47 49 50 51 51 54 52 51 50 48 48 49 51 51 51 53 53
50 49 47 48 52 54 49 50 48 46 41 38 42 36 44 53 49 48 48 48 48 48 48 47 47 48 48 47 46 46 48 49 49 48 48 47 46 47 48 48 47 48 49 50
51 53 51 52 53 52 52 47 47 45 41 29 43 41 41 47 48 47 49 48 48 47 47 47 48 48 46 45 45 46 46 47 47 47 46 45 44 44 44 44 43 44 46 46
49 50 51 52 46 48 45 41 30 29 26 28 43 38 44 51 53 52 48 46 45 45 44 44 44 44 44 43 43 45 43 44 44 44 44 44 43 42 43 42 42 42 42 43
40 39 48 50 48 44 45 44 31 21 23 30 37 31 43 51 51 50 48 46 45 44 44 43 44 43 43 44 44 43 43 43 43 42 42 43 43 42 42 42 41 41 41 42
40 41 48 50 50 49 43 39 45 33 27 24 34 42 51 49 46 46 45 43 42 43 43 43 43 42 42 42 42 43 41 40 41 41 41 41 41 41 40 40 40 40 40 44
46 36 48 46 48 46 44 46 34 35 25 19 31 32 38 42 43 44 41 40 41 43 43 43 42 42 42 42 42 42 41 39 39 39 39 41 39 40 40 39 38 38 39 40
46 40 39 44 41 40 40 39 40 41 34 24 25 31 42 40 42 38 39 40 40 41 41 41 42 43 42 42 41 40 40 38 37 38 39 38 37 37 37 36 36 36 36 38
46 40 29 37 46 48 44 42 41 30 28 32 33 32 44 41 41 41 40 42 42 42 42 42 42 41 41 41 40 41 40 37 38 38 36 37 37 35 34 34 34 33 34 35
43 33 23 27 37 40 38 41 41 40 33 29 26 29 42 41 39 40 40 39 42 41 40 40 40 38 39 40 40 40 40 39 38 37 36 35 33 32 32 31 31 32 32 32
44 35 28 24 31 38 30 36 37 34 27 27 28 32 41 40 39 38 36 37 38 40 40 40 38 38 40 40 39 40 40 40 38 37 35 32 31 31 31 30 29 29 30 29
42 28 32 34 36 35 32 32 34 31 33 26 31 32 39 43 41 35 36 38 38 38 39 38 37 36 37 37 37 38 37 36 35 34 32 31 31 30 29 28 27 27 28 29
40 22 28 20 30 31 27 31 31 32 32 32 34 33 44 37 37 36 38 38 37 37 39 39 39 38 38 38 37 38 36 34 33 30 28 30 28 28 27 25 26 26 27 27
30 23 14 13 26 23 14 26 29 31 34 34 27 30 26 29 33 32 32 35 35 37 37 38 38 38 37 36 37 35 34 33 26 25 26 26 26 26 28 27 27 27 26 26
26 20 18 11 12 3 26 35 34 30 32 29 25 21 26 30 32 33 35 35 36 36 36 37 37 37 37 35 34 33 31 26 27 26 25 25 26 25 26 25 25 26 26 25
34 27 19 9 6 20 27 31 30 25 25 29 25 27 30 32 30 30 37 36 34 34 36 36 35 36 34 32 30 28 26 26 26 26 26 26 24 24 25 24 25 25 24 24
31 31 21 7 5 -1 23 30 34 31 17 24 22 21 25 27 17 23 34 34 34 35 36 34 34 32 31 29 29 25 24 22 24 25 25 24 23 21 21 22 22 23 22 22
10 10 15 16 12 14 24 27 32 10 18 23 23 24 25 23 26 31 34 34 35 34 32 31 29 28 28 27 24 22 22 20 21 20 19 18 17 16 16 16 17 16 16 18
17 9 6 6 4 9 29 27 20 26 30 29 29 30 30 31 32 32 33 32 32 29 28 27 26 26 26 24 20 18 17 19 17 15 13 11 10 10 11 9 10 11 11 10
14 21 12 18 15 30 31 30 32 33 27 29 30 31 31 31 30 31 31 30 28 26 27 24 18 19 21 15 15 13 15 14 12 8 6 6 6 7 7 6 6 5 6 6
24 29 23 19 27 30 33 36 35 35 33 33 33 31 31 30 31 31 30 28 26 21 19 17 13 11 11 12 14 9 11 10 6 3 4 5 4 4 5 7 7 5 5 4
27 26 22 24 30 32 34 34 35 36 36 34 33 33 31 30 30 29 25 21 21 19 17 13 10 11 10 11 9 6 8 6 3 3 4 4 4 4 4 5 5 6 8 8
31 28 25 22 31 31 33 34 34 33 32 32 31 28 26 26 25 23 21 20 18 15 13 10 8 8 7 6 5 5 1 1 2 2 3 3 3 3 4 3 4 11 14 16

GFSCGP_sfc_temp_027.txt.gz
Temp
51 45 41 47 49 50 46 44 42 48 55 49 50 48 53 57 56 56 51 50 49 49 50 50 50 49 49 50 50 51 52 53 54 52 52 52 53 54 55 59 61 60 59 58
46 42 51 53 52 51 47 43 43 48 53 49 48 47 53 56 54 53 51 48 47 47 47 48 47 47 46 47 47 48 50 51 52 52 50 51 50 50 51 54 56 60 58 57
43 50 55 53 50 48 45 43 43 45 47 48 44 42 49 54 51 51 49 49 48 46 45 45 45 44 45 45 45 47 48 49 49 50 52 50 49 49 49 50 51 54 56 55
46 53 52 49 47 49 42 48 48 46 40 35 43 31 42 48 46 46 45 43 43 44 45 45 44 43 44 43 45 46 47 47 48 47 46 44 45 43 44 45 46 48 50 51
46 47 45 45 48 50 46 47 45 43 38 34 38 31 39 44 40 41 41 42 42 43 43 43 42 44 43 42 42 43 45 45 46 45 44 43 42 42 43 44 44 45 46 48
47 49 49 49 50 49 49 44 43 39 37 27 36 36 36 42 44 41 42 42 43 42 42 42 43 43 41 41 40 42 43 43 43 44 43 42 40 41 40 40 40 41 42 44
43 46 47 50 43 46 45 38 28 26 23 26 37 34 40 46 46 45 40 39 40 40 40 40 40 40 41 40 40 42 40 40 41 41 41 40 40 39 39 39 38 38 39 39
37 36 45 48 46 42 41 41 29 19 22 25 37 30 38 41 43 43 42 40 41 40 40 39 39 39 39 39 39 38 38 38 38 39 38 38 39 38 38 38 38 37 38 39
37 38 45 47 48 49 41 37 42 32 20 21 30 38 41 41 40 40 39 39 39 40 39 39 40 39 39 38 38 38 37 37 37 37 37 37 37 38 38 38 37 37 36 40
41 34 43 42 45 45 43 44 32 30 16 16 27 30 33 36 36 38 37 37 39 39 41 41 41 41 41 40 38 38 38 36 36 37 36 36 36 36 36 36 34 34 35 36
43 39 36 41 39 39 39 37 38 37 31 21 19 28 39 38 38 35 36 38 38 39 39 39 39 39 39 38 38 39 39 38 37 36 36 36 35 35 34 35 34 33 32 34
42 38 26 35 42 43 43 39 39 28 26 27 29 32 41 39 38 38 38 39 39 39 39 39 40 39 39 39 39 37 36 36 36 37 36 36 36 35 34 32 34 32 32 32
43 31 19 27 34 39 36 39 39 39 32 27 25 26 39 38 37 38 37 37 38 37 35 36 35 35 36 36 36 36 38 36 36 34 34 34 33 31 31 32 32 32 30 29
46 35 27 25 29 34 28 31 33 34 23 20 24 26 37 39 35 36 36 36 35 36 36 35 35 35 36 36 35 35 35 36 36 33 32 30 29 30 30 30 29 29 29 28
40 26 30 32 32 31 30 29 31 28 30 23 30 30 36 40 36 34 34 34 35 36 36 35 35 34 34 34 35 35 35 35 34 32 31 30 29 29 28 27 27 28 27 28
38 22 27 19 30 30 26 30 30 30 30 30 31 30 40 32 32 33 35 35 35 35 36 36 36 36 36 36 35 35 34 33 32 30 28 29 28 30 29 29 30 29 28 27
31 24 14 11 25 22 14 25 29 30 32 29 24 29 23 27 32 31 31 32 33 34 35 35 35 35 34 34 35 33 32 31 25 23 24 26 27 27 27 27 27 27 27 28
26 19 14 6 9 5 25 31 30 29 30 24 22 19 23 28 31 33 34 32 33 34 36 35 34 34 33 33 31 31 29 25 26 24 22 22 24 23 24 24 24 24 25 25
32 27 10 9 4 16 26 28 27 25 24 25 23 24 28 30 28 27 34 33 33 34 35 34 33 33 30 28 28 26 25 24 24 24 23 21 20 18 19 17 18 19 19 20
29 29 21 -1 5 1 20 27 32 29 15 22 18 21 23 27 17 21 33 34 35 34 34 33 31 30 27 26 26 23 22 19 20 21 20 20 18 14 13 14 13 14 14 15
8 5 17 17 11 11 22 26 31 10 18 20 22 23 24 23 26 30 32 32 33 33 32 29 27 26 25 24 22 20 18 17 17 16 16 14 13 10 10 9 10 9 9 10
15 10 4 2 -1 7 29 25 21 26 28 28 28 29 29 29 30 30 31 31 31 30 27 26 25 24 24 21 18 16 15 17 13 11 10 8 7 7 8 5 6 5 5 4
15 20 12 17 15 27 29 29 32 31 27 28 29 30 30 29 29 30 30 30 29 27 27 24 18 19 19 14 13 11 12 11 9 2 1 3 4 5 5 3 3 3 4 4
22 26 21 18 25 27 30 31 32 32 31 32 31 31 29 28 30 30 30 29 27 21 19 16 13 10 9 10 12 7 8 7 -4 -6 1 4 4 4 4 5 5 3 3 3
26 24 21 21 28 30 31 31 33 33 32 31 31 31 30 29 30 30 28 23 21 19 16 13 10 9 8 9 6 2 6 -0 -1 1 3 3 4 2 3 4 3 4 7 8
30 28 24 22 31 30 32 35 33 31 32 32 30 28 29 28 28 25 21 20 18 16 15 12 9 7 4 1 1 -0 -3 -6 -5 0 3 3 3 3 3 3 3 10 13 15

GFSCGP_sfc_temp_030.txt.gz
Temp
49 44 41 46 47 47 44 42 41 45 52 46 47 46 52 54 54 48 44 44 44 44 46 46 46 46 46 46 46 47 48 48 50 48 48 50 50 51 55 58 59 59 59 57
44 41 51 50 49 47 44 41 41 46 49 46 46 47 52 51 47 46 44 42 42 42 43 44 44 44 43 43 45 46 46 46 47 48 46 47 47 48 48 53 55 55 57 56
42 49 52 50 47 45 43 41 41 43 45 45 42 41 46 44 46 46 44 43 43 41 40 41 42 41 42 41 41 44 45 45 45 46 48 48 47 47 47 47 49 51 52 53
44 50 49 45 45 46 40 47 46 43 39 35 41 30 40 42 41 41 40 38 38 39 40 41 40 40 40 39 41 43 44 44 45 44 43 41 41 40 40 41 43 45 46 47
45 44 43 43 46 48 45 46 44 41 36 33 34 31 36 40 37 37 37 38 38 39 39 39 39 40 40 39 38 40 42 42 42 42 42 41 39 39 40 40 40 40 41 42
46 47 47 48 47 47 48 43 40 36 34 26 34 34 34 39 40 37 38 38 39 38 38 39 40 40 38 37 37 38 40 39 40 40 40 39 37 38 37 37 37 38 39 40
41 44 45 47 43 43 43 38 29 25 23 26 35 30 37 38 41 41 37 36 37 37 37 37 37 37 37 36 36 39 37 37 38 38 38 37 36 36 36 35 35 35 36 37
36 35 44 46 45 42 39 39 28 19 21 25 32 29 35 37 38 39 39 38 38 37 38 37 37 37 37 37 36 36 35 35 36 36 36 36 36 35 36 35 35 35 35 36
35 36 42 44 44 47 39 35 39 31 16 20 29 31 36 37 35 36 36 37 36 37 37 37 37 38 38 37 37 37 35 34 34 34 34 35 34 34 35 34 35 35 36 37
41 34 41 41 43 41 41 43 32 29 17 17 26 28 30 32 33 35 35 36 37 37 37 37 37 37 37 38 37 37 36 35 35 35 35 35 33 34 32 31 30 30 32 32
42 39 34 39 37 37 36 35 35 34 28 18 15 26 36 37 37 35 37 38 37 37 37 37 37 39 39 37 37 36 35 35 35 34 34 34 33 33 33 32 32 30 30 30
41 37 25 34 38 40 39 37 37 26 24 24 26 30 40 40 39 38 37 38 37 37 37 35 35 35 35 34 34 34 34 34 34 35 34 34 33 31 30 30 30 31 30 31
42 30 17 26 34 36 34 36 36 34 30 20 22 26 38 37 36 37 36 36 37 36 34 34 34 34 34 33 34 33 33 33 33 33 32 31 31 30 29 30 30 30 29 29
45 32 28 27 29 33 30 33 34 34 22 23 26 28 35 34 34 34 35 36 35 34 34 33 32 33 33 34 33 33 33 33 32 32 31 29 29 29 29 29 28 27 27 28
42 31 30 31 33 33 31 31 31 29 30 24 31 29 36 36 34 34 34 33 34 33 33 33 32 32 32 32 32 33 33 33 32 31 30 30 29 28 27 26 25 26 26 27
37 25 28 22 31 31 27 31 29 30 31 29 31 29 39 37 31 30 33 33 32 32 34 34 34 33 33 33 33 33 32 32 31 28 26 28 26 26 26 25 26 26 27 26
32 25 18 16 24 21 15 23 29 32 31 30 24 30 23 28 32 31 31 32 33 33 34 34 34 33 34 33 34 31 30 29 24 22 20 21 22 22 22 22 23 23 22 23
27 22 20 11 10 3 27 29 29 29 30 25 22 20 24 29 30 31 31 32 33 33 33 34 33 32 33 31 30 29 28 24 23 20 18 18 20 18 19 19 18 18 18 18
32 27 17 13 7 16 27 28 25 24 23 25 24 24 29 28 27 26 32 32 32 32 34 33 33 31 29 27 27 25 23 23 22 21 20 18 16 13 15 12 13 14 13 13
29 29 23 3 1 3 22 25 29 29 14 19 20 23 22 26 17 23 31 33 33 34 33 32 31 29 26 25 26 22 20 18 18 18 18 17 14 7 9 10 9 10 9 11
11 19 18 16 2 9 22 26 29 11 18 18 21 24 23 22 28 30 32 32 33 33 32 30 27 27 25 23 21 19 17 15 15 14 13 11 11 8 8 7 8 7 6 8
15 11 10 9 9 6 27 26 21 27 28 28 26 28 28 30 31 30 30 30 31 30 28 27 25 24 23 20 18 15 14 15 11 9 7 6 3 4 7 3 4 4 3 2
16 20 12 16 15 28 28 29 33 32 27 28 28 30 30 30 29 30 29 29 30 29 28 26 21 20 19 15 14 12 12 10 8 0 -3 -2 1 4 4 1 2 2 2 2
22 25 20 18 24 26 30 33 32 31 31 32 32 32 29 29 30 31 30 30 29 23 20 16 14 12 12 13 14 11 7 6 -5 -10 -3 1 0 2 2 4 5 2 1 1
23 23 19 19 27 28 29 30 32 34 31 32 31 31 31 29 30 30 29 26 24 21 17 14 12 11 11 11 10 5 5 -1 -4 -4 0 1 1 -2 2 3 3 4 6 7
27 28 23 20 32 31 32 33 33 31 31 31 31 29 27 28 28 27 26 24 20 17 14 11 10 9 9 7 6 3 1 -5 -8 -2 1 1 2 2 3 2 2 10 13 15

GFSCGP_sfc_temp_033.txt.gz
Temp
47 44 41 45 46 46 42 39 39 42 50 44 45 45 50 51 44 40 39 39 40 40 43 44 44 43 43 43 44 44 44 45 47 46 45 48 48 48 50 53 53 54 56 56
43 40 50 49 47 45 41 38 39 44 47 45 44 45 46 43 41 41 39 38 38 39 40 42 41 40 40 40 42 43 43 43 44 45 44 45 44 45 46 49 50 50 51 52
42 48 50 49 44 43 40 39 39 42 42 42 39 39 41 40 41 41 40 39 39 38 38 38 39 37 38 38 38 41 42 43 43 44 45 45 45 43 43 43 44 44 46 46
42 48 48 43 43 45 38 45 45 41 38 34 38 30 38 38 36 37 37 35 36 36 38 38 37 37 36 36 37 40 41 41 42 42 42 40 39 37 37 38 39 41 41 41
43 43 41 42 44 47 43 44 42 39 35 32 33 30 34 36 33 33 34 35 35 36 36 36 36 37 36 36 34 36 39 39 39 40 40 39 37 37 37 38 38 38 39 40
44 45 45 46 44 46 46 42 39 34 33 25 33 34 32 35 37 34 35 35 36 36 36 36 37 37 35 35 35 35 37 37 37 38 37 36 35 35 35 35 34 35 36 37
39 42 43 46 42 42 41 37 29 25 23 25 31 29 35 35 36 39 35 34 35 36 35 35 35 35 34 34 34 36 35 34 35 36 36 35 34 34 33 33 33 33 33 34
35 34 43 45 44 41 38 39 29 19 20 25 31 28 36 34 36 38 38 36 36 35 36 35 35 35 34 35 34 34 34 33 34 34 33 33 33 33 33 32 32 32 33 34
34 35 41 42 42 45 37 34 38 29 14 20 30 32 34 34 33 33 34 34 34 35 35 35 35 35 35 34 34 34 33 32 33 32 32 31 32 31 31 31 31 30 32 36
41 34 39 40 42 40 40 42 32 28 17 15 26 27 31 30 31 33 33 34 35 36 36 35 35 35 35 35 34 34 34 33 32 32 33 32 31 31 31 30 30 30 29 30
41 39 34 38 36 36 36 34 34 34 28 19 15 27 36 36 35 33 34 36 36 36 36 36 36 36 36 35 34 33 33 32 32 32 31 31 30 30 30 29 29 29 30 29
42 36 28 33 35 35 37 36 36 30 26 24 25 32 37 37 38 36 36 38 37 37 36 35 34 34 33 33 32 33 33 33 33 32 32 32 31 30 30 29 29 28 28 28
42 31 20 28 33 34 33 34 34 31 27 18 22 26 37 37 36 37 36 36 37 36 35 34 33 32 32 32 32 32 32 32 32 32 31 31 31 29 29 29 29 28 28 27
45 33 31 31 30 33 29 32 32 30 23 23 29 31 33 34 35 35 35 36 36 36 34 32 31 32 32 32 32 31 31 31 31 31 30 29 28 28 28 28 27 26 26 25
40 27 29 30 31 31 30 30 30 29 31 29 33 32 35 36 35 34 35 35 34 32 31 32 31 31 31 31 31 31 31 31 30 29 29 28 28 28 26 25 23 24 24 25
36 27 28 22 30 31 28 30 31 32 33 31 31 31 38 35 34 32 33 33 32 32 32 32 33 32 32 32 31 32 30 30 30 28 26 27 23 23 22 21 22 22 22 21
32 28 25 25 25 25 20 25 30 32 30 31 25 33 25 30 32 32 31 31 33 33 33 33 33 33 33 32 33 30 30 27 23 21 18 18 20 19 19 19 19 18 18 18
30 28 26 18 18 14 28 27 29 29 31 26 24 21 24 29 30 31 31 31 32 33 33 33 32 32 32 31 31 29 27 24 23 19 17 17 18 15 16 15 14 15 15 14
32 29 19 19 10 19 28 28 25 24 25 27 27 28 29 28 27 27 31 30 31 31 32 32 33 32 30 29 28 25 23 23 21 20 18 17 14 11 12 8 10 11 11 10
31 31 27 10 10 9 24 25 28 29 16 21 23 24 25 26 17 27 30 32 32 33 33 33 32 30 28 26 26 23 20 18 18 19 18 16 13 6 6 9 8 9 7 10
16 20 21 14 17 14 21 25 29 12 21 19 23 26 22 22 28 30 31 31 32 32 32 31 29 28 27 24 21 20 18 16 16 15 13 11 10 5 5 5 6 5 4 7
16 13 11 11 11 9 27 26 22 27 27 27 26 29 27 29 31 30 31 31 31 30 30 30 27 25 23 21 19 17 15 15 12 10 8 5 0 2 5 -4 0 -1 0 0
18 21 15 19 17 27 28 29 33 31 28 27 29 30 29 29 29 31 29 29 29 30 31 28 24 21 20 16 15 14 13 12 10 4 0 -5 -1 2 2 -4 0 -0 -1 -1
22 25 21 19 24 26 29 31 32 31 31 33 32 32 29 28 30 31 30 30 29 26 24 20 18 17 13 11 14 9 9 8 -2 0 -1 -0 -2 -2 -2 3 4 -0 -1 -0
25 24 19 19 27 28 29 30 32 32 31 31 31 31 30 28 31 31 30 26 27 25 19 18 19 17 12 11 9 5 6 3 1 -1 2 1 -1 -4 -1 1 2 3 5 7
26 26 22 18 30 30 31 31 32 30 32 32 29 28 28 28 29 29 27 28 25 21 16 14 12 11 9 7 5 2 -1 -1 -3 0 2 -0 -0 -0 2 1 1 9 13 16

GFSCGP_sfc_temp_039.txt.gz
Temp
46 44 42 44 46 45 43 41 42 43 48 46 46 46 49 42 40 38 38 39 39 40 42 42 42 41 41 42 44 44 46 46 49 49 49 49 46 47 47 47 46 47 48 50
43 40 47 47 46 45 41 40 40 43 46 45 43 44 45 41 40 40 38 38 39 39 40 40 40 40 39 40 41 42 43 44 46 47 46 47 46 44 44 45 44 44 44 45
41 46 47 47 42 42 39 39 38 42 42 42 40 40 39 38 38 39 39 39 39 39 39 39 39 38 38 38 38 40 41 42 43 45 47 46 45 44 44 42 42 41 42 43
42 46 46 42 42 43 37 43 43 41 39 35 39 33 38 36 35 36 36 36 37 38 39 38 37 37 37 37 38 39 40 41 42 43 42 42 42 40 39 40 40 40 40 41
43 42 41 41 43 45 41 42 41 39 36 34 35 32 37 36 35 34 35 35 36 37 38 37 37 37 37 37 36 38 39 39 40 40 41 40 38 38 39 39 38 38 39 39
43 44 45 46 44 45 43 40 38 34 33 27 35 36 34 35 38 34 35 35 36 36 37 37 37 37 36 37 37 37 38 37 38 39 38 39 38 37 37 36 36 36 37 37
38 41 44 45 41 42 40 38 29 27 26 27 31 30 36 40 39 39 37 36 36 36 36 35 36 36 36 36 36 37 36 35 36 36 36 36 36 36 35 35 35 35 35 35
33 32 42 45 44 40 37 39 30 23 22 26 29 28 38 36 36 37 39 38 37 35 36 35 36 35 35 35 35 35 35 34 35 35 34 35 35 35 34 34 34 34 34 34
34 36 41 42 43 45 38 35 39 27 15 22 31 34 38 35 34 33 34 35 35 35 35 35 35 35 35 34 34 35 34 34 34 34 34 33 34 34 33 33 33 33 33 35
42 35 38 39 42 40 40 42 33 30 22 19 28 30 35 34 34 31 32 35 36 36 35 35 36 35 35 35 35 34 35 34 34 34 33 33 33 33 33 33 33 32 32 32
42 39 34 38 37 37 36 35 34 35 31 23 19 28 37 39 36 32 33 36 36 36 36 36 36 36 36 35 34 34 33 33 33 33 33 33 32 32 33 32 32 32 32 31
44 38 28 33 35 36 36 37 36 31 26 24 25 30 35 36 37 36 36 37 37 38 37 36 36 35 34 34 33 33 33 33 34 33 33 33 33 33 32 31 31 31 30 30
42 35 25 30 33 33 33 35 35 34 31 22 25 28 36 34 34 34 35 35 36 36 35 35 34 35 34 34 33 33 33 33 33 33 32 32 32 31 31 30 30 29 28 28
48 35 35 36 34 35 31 32 34 35 24 29 31 31 33 35 35 34 35 36 35 36 36 36 34 34 35 34 34 33 33 33 33 32 32 32 31 31 30 29 27 27 26 25
43 36 33 32 35 34 33 32 32 32 37 32 36 34 35 40 39 37 38 34 34 35 34 34 34 34 34 33 33 33 33 32 32 31 31 31 30 29 27 25 24 24 23 23
37 32 32 29 32 32 29 33 33 34 35 37 33 33 40 41 35 34 35 34 34 35 36 35 35 34 33 34 33 34 33 32 31 30 30 30 27 24 23 22 22 21 21 20
33 30 30 29 26 28 27 30 31 30 30 36 29 38 31 34 35 34 34 35 37 36 36 35 35 34 34 34 35 32 33 31 28 26 23 23 22 22 20 20 19 19 17 17
32 31 31 19 24 21 28 25 30 32 32 27 27 25 34 35 33 34 34 34 34 35 36 35 34 33 33 33 32 33 30 28 26 24 22 20 20 18 17 16 16 16 15 14
33 31 21 20 21 26 23 26 28 29 29 30 32 31 32 31 31 30 33 33 35 34 35 34 34 33 32 32 32 29 26 25 24 24 22 20 18 15 15 12 13 13 12 12
30 32 31 21 20 19 25 26 30 34 22 25 33 30 24 28 21 28 31 33 33 33 32 33 33 32 31 31 29 25 24 22 23 23 23 19 16 11 10 12 10 11 9 12
23 24 27 23 22 24 27 28 32 24 28 25 27 25 25 26 30 32 32 31 32 32 32 32 31 31 32 28 24 24 21 21 23 19 17 15 14 10 10 8 9 7 6 8
23 22 21 22 20 19 28 28 28 32 29 30 29 29 29 30 32 32 32 33 32 31 31 32 29 29 29 25 23 23 21 22 17 16 14 11 7 11 8 2 4 3 2 1
23 27 25 27 26 28 34 32 34 34 31 29 31 31 31 31 31 32 32 31 31 31 30 29 27 27 26 22 22 22 22 16 13 11 8 5 5 6 4 1 4 4 2 1
24 27 24 24 25 27 31 32 33 33 33 32 32 32 30 30 30 31 30 30 29 25 25 22 20 21 22 18 20 22 15 13 9 6 5 4 3 5 3 7 7 4 4 3
26 26 20 21 26 29 31 31 33 33 32 32 31 31 31 29 30 30 28 25 25 24 20 18 21 22 23 17 15 11 11 9 7 5 6 6 5 4 6 7 7 7 8 5
26 25 24 21 31 32 33 35 34 32 31 30 29 27 26 27 28 27 25 25 22 22 17 17 18 18 15 11 9 6 6 7 6 5 6 5 5 5 6 5 5 11 15 17

GFSCGP_sfc_temp_042.txt.gz
Temp
59 59 54 61 63 61 58 56 57 57 59 57 60 61 62 56 54 54 53 53 52 51 50 52 52 53 54 55 56 56 55 56 59 61 60 57 55 54 54 54 54 55 56 56
54 53 62 58 58 57 55 54 55 57 56 56 58 56 63 54 55 55 53 52 52 51 51 50 51 52 52 52 53 54 55 56 57 58 56 56 54 53 53 52 51 52 52 53
56 58 58 56 52 52 54 53 55 54 52 54 52 53 57 50 48 49 51 53 52 52 50 50 50 51 52 50 51 52 53 54 56 56 55 54 55 55 53 51 49 49 50 50
56 56 52 52 53 55 51 56 54 51 50 47 52 47 52 53 47 45 47 49 50 50 50 49 50 49 49 48 50 51 52 52 53 55 55 55 53 49 49 48 48 47 48 48
54 49 50 50 53 55 53 53 52 51 49 46 48 46 54 45 45 44 46 48 50 51 50 49 48 47 47 48 49 50 50 50 51 52 52 51 48 48 50 48 46 46 46 46
53 53 54 55 50 53 50 49 47 47 47 38 47 46 51 48 50 50 47 48 49 49 48 48 47 46 46 46 47 48 48 47 49 50 50 50 48 47 46 46 45 45 46 46
48 49 52 52 48 49 50 49 40 36 36 36 41 41 53 55 49 51 47 47 48 48 47 46 45 45 45 45 45 46 47 45 47 47 47 47 47 47 46 46 45 45 44 44
44 42 48 52 53 48 45 50 42 31 32 40 36 38 48 47 46 46 51 49 48 47 47 46 46 46 45 44 45 45 44 44 46 46 45 46 46 46 46 45 45 44 43 42
43 43 48 49 50 54 45 42 49 35 26 35 44 45 50 42 42 43 45 46 45 45 45 45 46 46 45 45 45 46 45 44 45 45 45 44 45 44 43 43 44 43 43 42
50 42 44 45 51 48 49 51 39 41 31 31 39 40 49 41 43 41 41 43 45 46 45 46 46 46 46 46 45 45 45 45 44 44 45 44 43 43 43 43 42 41 41 41
50 46 40 45 44 46 43 42 43 46 41 35 35 42 52 51 49 43 44 46 47 46 46 46 46 47 46 46 45 45 44 43 43 43 43 42 42 42 42 42 41 40 40 39
50 42 36 41 45 45 50 48 47 41 32 36 36 43 47 48 49 49 47 46 48 47 47 48 47 46 45 44 44 44 44 43 43 43 42 42 41 41 41 40 40 39 38 37
48 40 33 36 41 40 40 43 46 48 39 34 35 42 44 43 44 46 47 46 46 46 47 47 47 45 45 45 44 44 44 43 43 42 41 41 41 40 40 39 38 38 36 35
52 42 39 39 45 46 37 42 43 44 38 40 39 45 42 44 44 44 44 46 47 46 47 47 46 46 47 46 45 45 44 44 42 41 41 40 40 40 40 38 36 35 34 33
49 36 42 46 47 44 42 43 41 41 45 41 47 44 47 49 47 49 50 48 46 45 46 47 47 47 46 44 45 45 45 43 42 40 40 40 40 40 37 34 32 31 30 30
42 38 41 37 43 40 37 42 42 43 45 46 48 45 54 52 51 47 47 45 44 45 46 46 46 46 43 43 44 43 43 41 41 41 39 41 38 33 31 29 28 28 27 27
38 38 32 32 39 33 28 35 41 43 47 47 42 46 43 42 44 46 46 45 45 46 45 45 45 45 43 43 44 42 42 42 37 35 34 33 32 30 29 28 27 26 26 25
34 34 33 30 29 23 37 38 46 41 42 40 37 36 41 44 45 46 47 46 45 45 45 45 45 45 44 43 42 43 42 38 34 34 32 31 30 28 27 25 25 25 24 23
35 34 26 26 27 34 29 34 36 37 38 39 40 38 38 37 41 43 43 44 46 44 46 45 46 45 42 42 42 38 34 34 34 33 32 30 29 26 25 22 23 23 22 21
30 33 32 25 26 26 39 36 37 42 34 37 37 35 34 37 36 44 40 41 41 42 42 42 42 40 40 39 36 33 33 32 32 34 33 31 27 24 22 22 21 21 20 19
26 28 28 27 26 30 34 34 37 30 33 34 36 35 33 35 43 42 40 39 41 41 40 40 39 37 39 35 32 32 32 30 34 32 29 26 25 21 22 20 20 17 16 17
29 27 27 27 26 24 35 33 33 37 34 35 35 35 35 38 38 38 39 39 38 38 37 38 36 35 36 33 31 31 30 35 29 27 24 22 19 20 18 15 15 14 13 12
28 34 30 32 32 31 37 35 38 38 37 35 37 36 38 37 37 38 37 36 36 37 35 35 34 33 33 31 31 31 33 27 23 22 20 18 16 17 15 13 14 14 14 14
29 32 31 31 30 31 34 33 36 37 37 37 38 37 37 36 37 36 36 35 35 32 31 30 28 28 29 29 27 30 25 22 19 19 17 15 13 14 13 15 16 15 16 16
30 31 26 26 30 32 34 35 36 37 37 36 35 36 37 36 34 35 33 31 32 32 29 28 28 28 30 29 27 25 22 19 19 18 16 16 16 13 15 15 16 16 17 17
31 29 29 28 35 36 37 40 38 36 36 35 34 32 32 33 34 33 31 32 31 30 28 26 26 26 27 24 23 19 17 17 18 17 16 17 17 16 16 16 16 18 19 19

GFSCGP_sfc_temp_045.txt.gz
Temp
65 61 57 63 66 67 64 62 61 66 65 60 63 64 69 65 63 64 63 62 60 58 57 57 57 58 59 57 56 56 56 57 59 59 59 59 56 56 56 56 56 56 58 58
57 55 66 69 66 64 61 58 59 65 62 59 62 61 67 69 63 65 64 62 60 56 56 55 56 57 58 58 58 58 59 61 63 62 60 59 57 55 54 54 53 54 54 55
57 62 64 60 59 57 59 57 59 59 57 58 58 55 59 67 65 62 62 63 61 58 56 54 55 56 57 56 57 58 59 60 59 59 58 57 57 56 54 52 50 51 52 52
59 66 58 57 57 59 54 63 60 58 54 49 58 46 60 65 57 55 55 58 58 57 57 56 54 54 54 54 55 57 57 58 59 61 59 58 56 51 51 49 49 48 50 50
58 54 54 54 57 61 57 59 57 56 52 51 53 45 56 61 55 54 53 54 56 56 55 53 54 53 53 53 53 54 54 55 55 56 56 54 51 51 51 49 47 47 47 48
59 59 60 60 55 59 58 54 52 52 51 41 50 49 52 57 54 58 53 53 54 53 54 54 53 51 51 50 51 52 52 52 53 54 54 52 50 48 48 48 46 46 47 47
54 54 58 57 52 52 54 51 42 39 37 37 50 48 53 63 57 60 52 52 54 54 53 52 49 50 50 49 49 50 51 48 50 51 51 52 51 50 48 48 47 46 46 45
49 46 54 56 56 54 48 51 43 32 36 41 40 40 52 58 57 54 56 54 54 52 52 51 50 50 49 48 48 48 47 47 49 49 49 50 50 50 49 49 48 47 45 44
50 50 56 56 59 59 49 44 55 40 32 35 46 50 57 48 47 49 53 52 51 50 50 50 51 51 48 47 47 48 48 47 48 48 48 47 48 47 46 46 47 45 45 44
56 47 50 50 53 54 52 56 40 42 31 32 45 47 50 42 46 46 48 49 49 50 50 50 50 49 49 49 49 49 48 47 47 47 47 47 46 47 46 46 44 43 43 43
56 52 43 47 46 47 45 44 47 49 44 37 38 45 58 56 52 47 48 49 49 49 50 50 50 50 49 49 48 47 47 46 45 46 45 45 45 45 45 44 43 42 42 41
54 50 43 46 53 54 55 50 49 41 36 40 38 45 53 57 58 53 49 50 51 51 51 51 50 49 48 47 47 46 46 45 45 45 44 44 44 43 43 42 42 41 40 40
51 41 34 38 43 45 43 48 50 49 40 36 36 44 51 50 52 54 52 51 51 51 51 50 50 48 47 47 47 47 46 45 45 45 43 43 42 42 42 41 41 40 39 38
52 41 38 40 47 50 40 44 46 45 37 40 42 47 45 48 49 50 52 52 52 51 50 50 49 48 48 47 47 47 46 46 45 44 43 42 41 42 42 41 40 38 38 36
48 35 41 44 49 51 45 44 44 42 45 41 47 48 55 53 52 54 53 52 50 49 50 50 49 49 48 48 48 48 48 46 45 43 42 42 42 42 41 38 36 35 34 35
44 35 40 36 44 44 41 46 46 45 45 47 50 51 63 62 58 56 53 51 49 49 50 50 49 48 47 47 48 46 48 45 44 42 40 42 40 38 35 33 32 31 31 30
36 34 33 32 39 38 30 36 43 47 49 50 44 51 47 50 50 49 49 51 49 50 50 49 49 49 47 47 46 46 46 45 40 37 36 36 36 33 32 31 30 29 29 29
35 33 34 33 33 26 42 52 47 47 49 50 48 38 42 44 48 49 52 49 48 49 50 49 49 50 47 48 45 46 43 41 37 35 34 34 33 31 30 29 28 28 29 27
37 36 32 30 31 39 43 38 42 43 44 51 45 41 41 41 44 46 49 49 50 49 49 49 49 50 47 45 43 40 38 37 35 34 34 32 32 30 29 26 26 27 26 25
31 35 32 30 29 28 39 44 46 49 34 43 41 39 36 41 37 44 43 42 44 45 44 43 43 42 40 40 39 35 34 34 33 34 34 34 32 30 27 27 25 26 25 24
27 29 28 31 29 33 36 37 43 32 35 35 40 39 38 40 45 43 43 42 43 42 41 41 40 38 39 36 34 33 33 32 35 33 32 31 31 28 28 26 25 23 21 22
30 28 29 30 28 27 40 36 37 40 38 38 42 42 40 43 41 41 42 41 40 39 38 38 36 36 36 34 33 32 32 35 31 30 28 27 25 26 24 22 21 20 19 17
29 36 33 34 33 33 38 36 39 40 38 38 40 41 42 41 41 40 39 39 38 38 36 35 34 34 35 31 31 31 33 29 27 25 24 22 21 22 21 18 18 17 16 17
32 35 33 31 28 31 34 35 37 39 40 40 40 39 41 39 38 36 36 35 35 33 32 30 30 28 29 29 29 32 28 25 23 23 21 19 18 19 17 19 20 18 19 17
33 33 30 26 30 31 30 33 38 39 38 37 37 38 40 38 35 35 33 33 33 33 30 29 29 29 29 29 28 27 24 22 23 22 20 20 19 17 17 18 19 19 21 22
33 32 30 29 34 34 34 39 41 37 37 36 36 34 34 36 35 34 32 33 32 31 29 27 26 25 26 25 24 22 21 20 22 21 20 21 21 18 19 19 18 23 24 24

GFSCGP_sfc_temp_048.txt.gz
Temp
59 52 48 55 58 59 57 53 51 56 58 54 53 54 59 58 56 55 56 54 53 53 52 52 52 52 54 54 54 53 53 53 55 54 54 53 50 48 48 49 50 50 51 51
51 47 58 62 61 57 55 51 50 56 57 52 52 53 59 58 56 58 58 54 53 49 49 50 49 50 54 54 54 54 55 56 57 56 54 49 47 47 46 46 47 47 47 48
50 56 61 59 55 53 53 50 50 51 52 51 47 45 52 58 60 59 58 57 55 50 48 47 48 48 54 53 54 55 56 53 51 51 51 50 48 45 43 42 42 44 45 45
53 60 55 54 53 54 48 56 55 52 46 39 48 35 48 54 56 56 54 52 51 50 50 49 48 46 47 49 50 52 51 50 51 51 48 47 45 42 40 40 40 41 42 43
51 51 50 50 52 56 50 53 50 48 44 40 43 39 46 55 54 52 50 50 50 49 49 47 46 47 46 46 46 46 48 48 48 48 47 45 43 42 42 40 39 39 39 40
53 53 53 54 52 53 54 49 46 44 42 31 43 42 42 50 53 53 51 50 50 49 47 47 46 45 44 44 44 43 44 45 46 46 45 43 42 41 40 38 37 37 37 38
49 49 51 54 47 50 50 44 32 29 28 29 41 39 46 52 51 55 52 50 50 49 48 45 43 42 41 42 42 43 43 43 44 43 43 43 42 42 40 39 37 37 36 35
42 39 49 51 52 47 44 46 33 25 27 30 34 32 43 46 48 50 53 51 50 48 48 45 43 43 42 42 41 42 40 41 42 43 43 43 43 41 40 40 38 37 35 35
46 45 51 52 53 53 43 39 50 36 25 25 35 41 50 44 43 44 47 48 48 47 47 45 44 44 41 40 40 40 41 41 42 41 41 41 40 40 39 38 37 36 36 38
51 42 47 45 50 49 45 49 35 35 22 22 33 36 41 39 41 42 45 46 48 48 47 46 45 43 42 41 41 41 41 40 40 40 40 40 39 39 38 37 35 35 35 36
52 45 38 43 41 42 41 39 42 43 35 26 26 36 48 51 47 43 47 48 48 47 47 45 45 44 42 42 41 40 40 39 39 39 38 38 37 38 37 35 35 34 34 34
51 46 33 38 46 47 48 44 44 37 32 35 31 40 47 48 49 48 47 49 49 48 47 46 46 44 42 42 40 40 39 38 38 38 37 37 37 36 35 34 34 33 32 32
50 39 31 34 38 43 40 44 48 47 37 37 30 37 45 45 45 46 46 46 47 46 46 46 44 43 42 42 41 40 40 38 38 37 36 35 34 34 33 33 32 32 31 30
52 40 38 38 40 41 35 40 44 43 35 34 39 41 39 42 42 44 45 46 46 46 46 45 44 44 43 42 41 41 40 39 38 36 35 33 33 33 33 32 31 31 31 29
48 38 39 43 46 44 38 38 41 40 43 37 42 43 50 51 45 47 49 46 46 45 45 45 44 44 43 41 42 42 41 39 39 37 35 34 33 33 32 31 30 30 29 29
43 36 39 37 39 41 39 40 39 41 43 45 45 44 52 55 51 46 47 46 45 45 46 46 46 44 43 43 42 42 41 38 38 36 34 33 33 32 31 29 28 28 28 27
37 35 32 32 36 37 32 37 40 42 45 44 38 47 47 49 47 45 44 46 45 46 47 46 46 45 44 43 44 41 41 38 35 33 31 32 32 33 29 28 27 26 25 25
35 34 34 32 34 26 38 43 44 43 45 47 46 41 39 45 49 46 49 47 46 47 46 47 47 47 43 42 41 41 37 35 34 33 32 31 32 30 27 26 26 24 24 23
40 35 33 31 32 36 38 35 37 39 41 47 46 48 39 39 41 39 43 45 46 45 46 46 46 46 43 41 41 37 35 34 34 33 32 32 31 29 27 26 24 25 23 21
33 37 33 30 28 28 29 34 39 43 33 40 44 43 35 38 37 37 41 41 43 43 42 41 41 40 40 37 37 36 34 33 33 33 33 32 31 29 27 26 23 22 19 22
27 29 29 31 30 31 30 32 37 29 31 30 33 34 36 37 40 40 38 38 39 39 38 38 38 38 36 34 33 31 30 32 34 30 29 28 28 28 27 24 20 20 18 20
28 27 27 29 28 27 33 33 34 33 33 32 34 34 35 34 34 34 35 34 34 34 34 35 34 34 33 31 32 29 30 32 27 27 27 26 27 26 24 22 15 16 17 14
29 33 31 33 32 32 33 32 35 36 33 34 34 34 36 35 34 34 33 33 32 33 33 32 31 31 31 28 29 27 27 26 24 25 24 21 20 20 20 18 15 13 13 14
29 32 30 30 29 30 32 34 35 36 36 35 34 34 35 34 33 33 32 32 32 28 28 25 28 27 25 22 26 24 25 24 23 21 19 17 17 15 13 16 16 15 13 13
29 32 27 24 28 29 31 32 33 36 36 35 34 33 34 33 32 32 29 28 29 29 27 27 28 26 24 22 21 19 20 21 19 18 16 15 13 14 11 13 15 16 13 16
30 30 29 27 31 33 33 36 35 34 35 34 33 31 32 33 32 31 28 28 28 26 23 23 21 21 19 19 16 14 14 17 17 15 15 14 13 11 12 11 9 23 24 25

GFSCGP_sfc_temp_051.txt.gz
Temp
53 46 43 48 50 51 49 45 45 50 55 51 48 49 52 54 51 50 48 49 49 49 47 48 49 48 48 48 51 52 52 53 54 53 51 50 48 48 47 46 46 47 47 47
47 43 53 54 53 51 49 46 45 50 53 50 48 48 52 52 54 55 55 51 50 45 44 47 46 46 47 48 49 52 53 55 55 55 52 50 47 45 43 44 44 44 44 45
44 51 56 53 51 50 48 45 44 48 48 48 44 43 48 53 54 54 57 56 52 47 45 44 45 45 46 47 49 53 54 54 53 51 50 47 45 43 43 41 41 41 42 42
48 55 54 50 50 52 44 51 51 49 43 37 44 36 44 48 51 51 55 50 50 46 46 46 45 43 45 47 53 54 53 52 51 51 48 46 44 40 37 38 38 39 40 40
47 49 47 48 49 52 47 49 47 45 40 36 38 34 41 50 51 55 54 53 49 47 46 45 45 46 44 47 50 50 50 50 48 47 45 43 40 40 40 38 37 37 38 38
49 50 52 51 49 53 50 47 45 41 39 29 40 38 40 47 52 55 50 46 46 45 45 45 44 44 42 44 46 46 44 43 44 45 43 42 40 39 38 36 36 36 36 37
46 47 49 52 46 48 48 42 31 28 26 30 39 35 46 48 52 53 50 46 45 46 44 43 42 42 40 39 39 41 42 41 42 42 42 41 40 40 39 37 36 36 36 35
41 35 46 50 49 46 42 42 32 24 25 28 34 31 42 49 49 47 50 50 47 45 45 43 42 41 41 40 39 40 39 40 41 42 41 41 41 41 40 39 38 37 36 35
40 41 47 47 51 54 41 39 48 35 20 23 33 38 46 44 45 43 44 46 44 44 44 42 41 41 40 39 39 41 41 40 40 41 41 40 39 39 38 36 36 35 35 36
49 38 42 43 49 46 44 46 35 33 22 20 30 32 39 41 44 42 41 42 43 43 42 41 41 41 41 41 39 38 39 40 39 39 40 40 38 37 37 37 35 34 34 34
49 45 35 41 39 41 41 38 39 40 32 24 23 37 44 48 49 42 44 44 44 44 42 42 42 41 40 39 39 39 39 38 38 39 37 37 36 37 36 35 34 33 32 32
51 44 30 37 41 42 42 42 40 33 30 30 29 40 46 45 47 45 45 46 47 47 45 43 43 40 40 40 39 38 38 38 37 38 37 36 36 35 34 34 33 31 31 31
49 39 30 31 36 39 40 42 48 44 34 36 28 39 43 44 42 43 42 43 46 45 43 42 42 40 40 40 39 39 38 38 37 37 36 35 34 33 33 32 31 31 30 29
53 40 40 38 39 40 35 38 42 44 35 35 39 44 40 42 43 42 42 43 43 45 44 43 42 42 42 41 40 39 38 38 37 36 35 34 33 33 32 32 31 30 29 28
49 38 37 44 42 41 38 39 41 40 42 39 45 44 50 48 45 46 43 41 42 43 43 43 43 42 42 40 40 40 39 38 38 37 35 34 33 32 32 31 30 29 29 28
44 37 39 38 38 39 37 38 40 42 43 44 45 45 50 53 51 44 45 44 43 43 44 45 44 43 41 41 40 40 40 38 38 37 35 34 33 33 31 30 30 29 28 27
39 37 33 34 37 36 32 37 40 42 43 44 38 47 44 47 48 43 42 44 45 45 45 45 44 43 42 42 43 40 40 38 36 35 33 32 33 32 31 31 29 28 27 25
35 36 35 33 33 26 38 44 46 43 45 46 45 45 41 47 49 46 44 45 45 46 46 46 45 45 43 42 42 41 38 36 35 33 32 32 32 32 30 29 29 26 25 25
43 36 33 31 32 36 39 35 36 38 40 48 46 48 50 42 39 41 43 45 48 46 47 47 46 46 43 42 42 38 35 35 35 34 33 33 33 31 29 28 27 27 25 23
35 40 35 31 29 28 33 33 37 43 36 42 44 46 46 39 37 47 40 41 42 42 43 41 41 41 41 40 39 37 36 35 34 35 34 34 34 31 29 30 27 26 25 25
30 32 30 32 31 31 32 32 35 32 33 27 31 35 35 39 43 40 39 38 39 39 39 40 40 40 41 39 38 36 34 33 35 33 30 30 30 31 31 29 25 21 23 21
30 28 28 30 28 27 36 34 35 35 34 31 32 34 35 36 34 34 35 35 36 36 35 35 34 33 32 33 35 30 31 32 28 27 28 29 29 29 26 25 20 20 20 18
29 33 30 33 33 33 34 35 36 36 32 33 34 33 36 34 32 32 32 33 33 34 34 33 33 31 30 28 31 30 27 26 25 25 26 24 23 24 24 23 18 15 17 19
30 33 32 32 31 31 33 35 34 34 34 35 35 34 34 34 33 32 32 32 31 27 28 25 28 26 23 21 24 22 23 22 22 20 18 16 19 14 12 16 18 18 16 16
30 31 29 27 29 29 32 32 35 35 36 34 33 34 35 34 33 32 29 27 27 27 24 25 25 23 21 19 17 15 17 19 18 15 15 15 13 13 12 13 13 14 12 17
31 30 29 29 33 35 34 37 35 34 35 34 34 32 32 33 32 30 28 27 27 26 21 21 19 21 15 16 12 9 10 16 18 16 15 14 13 11 11 11 9 23 23 25

GFSCGP_sfc_temp_054.txt.gz
Temp
50 46 42 47 48 48 46 42 42 46 53 49 47 48 52 52 48 47 47 47 47 48 47 47 46 46 46 45 46 46 51 52 53 51 50 50 46 47 47 47 45 45 46 46
46 42 51 52 50 49 46 43 42 47 51 48 47 46 50 50 50 53 53 50 50 45 44 46 44 44 45 45 46 47 49 53 54 54 51 49 47 45 45 44 42 43 43 44
43 50 53 52 47 46 45 42 41 45 45 45 42 40 46 51 51 52 56 57 54 50 46 44 43 43 43 44 45 48 49 52 52 49 48 46 46 46 44 39 39 40 41 40
46 52 51 47 46 48 41 49 48 46 41 36 41 34 42 46 49 50 55 52 54 49 47 46 45 43 44 44 45 48 54 51 50 50 47 47 45 42 39 37 37 37 38 38
46 46 47 46 47 51 45 48 46 43 38 35 37 33 40 43 45 50 55 52 51 47 47 45 46 46 45 45 49 48 49 50 50 49 48 46 40 39 38 37 36 35 35 36
46 49 50 50 49 52 49 45 42 38 36 29 40 37 39 44 49 52 56 54 49 46 46 47 46 45 44 43 48 49 49 48 48 48 46 44 39 38 37 35 34 33 33 34
44 46 48 50 46 46 47 44 30 28 25 30 36 34 47 48 51 52 56 51 45 45 44 43 41 43 42 42 44 48 48 45 45 44 43 43 40 40 38 36 35 34 34 32
40 37 46 49 49 45 43 42 31 23 24 28 33 30 40 48 53 50 48 46 43 42 44 43 43 44 42 41 42 47 45 42 43 41 40 40 40 39 38 37 36 36 35 35
39 38 43 45 47 52 40 37 44 35 18 23 32 37 45 45 46 46 46 41 39 41 42 42 42 42 41 40 40 44 44 43 40 40 39 38 38 37 37 35 35 35 34 35
46 37 39 41 47 43 43 46 35 31 21 19 30 31 39 40 44 47 45 40 40 40 39 39 40 40 41 41 39 40 42 40 39 39 39 39 39 38 37 37 34 33 33 33
47 42 34 40 39 40 38 37 37 38 31 24 21 35 42 47 47 47 47 43 40 40 40 40 40 40 39 39 38 37 38 37 37 39 38 37 36 36 36 34 33 33 33 32
48 44 29 35 39 39 39 39 38 30 28 29 28 39 45 46 48 47 47 44 42 43 41 40 39 38 37 36 37 37 37 37 37 38 37 37 36 35 34 33 33 32 32 31
48 39 27 31 35 37 37 41 46 41 34 33 29 40 42 42 43 45 46 41 41 40 38 39 38 37 37 38 38 38 37 37 36 36 35 34 34 34 34 33 33 32 31 30
53 41 37 36 37 39 34 37 41 44 36 35 39 44 42 43 45 46 44 41 40 41 41 40 39 39 40 40 40 38 38 38 37 36 35 34 34 35 34 33 32 32 31 30
49 37 39 44 44 41 39 38 41 39 43 39 45 44 52 49 48 50 46 40 39 40 40 40 40 39 40 40 40 40 40 38 38 37 35 35 35 34 33 32 32 31 30 30
45 38 41 38 43 38 36 37 41 42 44 45 46 46 52 52 46 45 46 42 41 42 42 42 42 41 40 40 40 40 40 37 37 37 35 35 33 33 32 31 30 29 30 28
41 39 34 33 40 34 31 39 37 40 45 44 39 47 48 49 48 46 44 43 44 44 44 43 43 42 41 41 41 39 39 37 35 35 34 33 33 32 31 31 30 29 29 29
35 37 36 34 34 27 39 48 48 44 44 45 45 48 45 48 52 49 45 44 44 45 45 44 44 44 42 42 41 40 37 35 35 35 34 32 33 32 31 30 30 29 29 28
43 37 32 31 32 35 37 34 37 38 41 49 47 49 50 49 38 47 45 46 48 46 47 46 45 45 43 41 41 38 35 35 35 34 34 33 33 32 30 29 29 30 28 26
40 42 34 31 29 28 36 35 37 42 36 44 46 47 47 41 36 46 47 41 42 43 41 40 41 38 39 39 38 36 35 34 34 35 35 33 32 33 30 31 30 29 28 28
31 34 32 32 31 32 33 32 36 33 36 27 30 33 35 38 43 37 37 37 37 37 38 38 39 38 38 38 37 35 34 34 36 34 33 32 33 33 33 32 30 29 27 26
30 29 29 32 30 28 37 34 35 36 31 31 31 33 35 34 33 32 34 34 34 34 34 35 34 33 34 35 36 34 33 34 34 33 32 31 32 32 31 30 29 25 24 22
30 35 31 33 33 35 35 35 35 35 31 34 34 33 34 33 32 32 32 32 32 32 32 31 31 30 30 29 31 29 27 27 26 28 28 28 28 28 27 27 22 17 19 20
30 33 31 33 33 33 34 34 35 37 36 35 34 33 34 34 33 32 32 32 31 26 27 25 28 26 24 22 25 25 25 25 26 25 22 20 22 18 17 20 20 20 19 19
30 32 30 31 32 32 34 33 36 35 35 34 33 34 34 34 33 32 29 26 26 26 24 25 27 25 21 21 20 16 21 22 21 18 17 16 17 17 14 15 17 19 13 19
29 30 32 30 35 36 35 35 35 35 35 35 34 32 32 33 33 30 27 26 25 25 21 22 20 21 17 19 16 15 13 20 19 17 16 15 15 13 14 13 9 23 22 26

GFSCGP_sfc_temp_057.txt.gz
Temp
48 45 42 47 46 45 44 40 40 45 50 46 46 47 52 51 46 45 46 47 48 49 51 46 46 45 45 45 45 46 50 52 52 51 50 50 47 47 47 48 47 48 46 45
44 41 50 50 48 46 42 40 40 45 48 47 45 45 48 48 49 51 51 51 50 50 44 46 44 43 44 45 45 45 48 52 52 53 47 49 47 45 45 46 45 46 43 43
43 48 50 50 45 44 42 40 39 43 43 43 40 40 44 51 50 50 53 56 55 54 49 46 44 44 44 44 45 46 48 51 53 47 47 46 46 46 44 43 43 42 41 40
44 49 49 45 44 47 40 46 45 43 40 34 40 35 41 45 48 48 53 53 54 54 50 48 46 43 44 45 45 47 48 52 49 49 47 47 46 45 44 42 40 38 38 37
45 45 45 43 45 48 43 46 43 40 36 34 35 33 37 41 44 49 55 54 55 54 50 47 47 47 46 45 45 46 48 49 48 49 49 48 46 42 42 40 39 35 35 36
45 47 49 49 47 49 48 44 40 35 35 28 41 36 43 41 49 50 55 56 51 48 46 46 47 46 44 44 45 47 50 48 46 48 48 46 42 39 39 38 36 34 33 33
41 44 46 49 45 45 45 42 31 27 25 30 32 32 47 46 50 51 55 54 47 44 42 41 42 42 42 42 45 49 48 45 46 46 45 44 43 43 40 38 36 35 34 32
39 37 45 48 51 44 42 42 31 23 23 28 32 29 39 46 51 49 49 48 43 41 41 41 43 43 42 43 45 48 46 43 45 44 44 44 43 43 42 40 38 37 35 34
37 37 42 44 47 52 39 36 45 36 18 23 35 37 44 45 45 46 47 43 40 42 39 39 40 42 42 42 44 48 44 42 44 44 43 42 42 41 40 34 34 34 33 35
44 35 38 40 46 42 42 45 34 30 22 18 30 31 38 43 45 47 47 45 41 40 38 38 39 40 41 42 41 43 43 42 43 42 42 42 41 40 36 35 34 33 34 34
45 40 33 38 38 38 38 36 35 37 31 23 20 34 41 48 47 49 48 47 44 41 38 37 38 38 39 39 38 39 39 41 41 41 40 39 38 35 36 36 34 33 34 33
46 42 29 34 37 39 39 39 40 31 26 28 27 39 44 45 46 47 49 48 41 40 38 37 37 36 36 37 37 37 37 38 41 41 39 38 36 35 35 34 33 33 33 33
47 38 26 32 33 36 35 38 44 38 32 30 28 39 41 41 42 45 46 42 41 39 37 36 35 36 36 36 37 37 38 38 39 38 37 35 34 34 35 33 33 33 32 31
51 39 34 34 34 37 33 36 39 43 35 36 38 43 43 43 44 46 47 43 40 39 38 37 37 37 37 38 38 38 37 37 36 36 36 34 34 35 36 35 33 32 32 31
46 33 38 42 40 38 36 36 39 39 43 37 44 43 51 52 47 51 48 44 40 39 37 38 38 38 38 38 38 39 38 37 37 37 36 35 35 37 35 33 33 32 32 32
44 34 36 35 39 38 36 36 39 41 44 44 45 45 52 47 46 44 49 46 42 41 41 41 40 39 38 39 39 39 39 37 37 37 36 36 35 33 32 31 31 31 31 29
39 36 34 32 38 36 32 38 41 42 45 45 39 48 48 51 48 49 48 45 44 45 44 42 41 41 40 40 40 38 39 37 35 35 33 32 33 32 32 31 31 30 29 30
35 36 35 33 34 26 39 49 47 44 45 46 48 50 48 49 51 50 46 45 45 46 45 43 43 43 41 41 40 40 37 35 35 35 32 33 33 32 31 30 30 30 29 29
43 37 34 32 32 37 38 39 38 39 41 49 46 49 51 50 39 49 45 47 50 45 47 46 45 44 41 40 39 37 35 34 34 34 33 33 33 32 31 30 29 29 28 27
39 42 34 31 29 28 38 39 41 44 36 50 47 48 48 44 37 48 44 40 43 43 41 40 38 38 38 37 37 35 33 33 33 35 35 34 34 33 30 30 29 29 29 28
30 33 33 32 31 33 33 32 37 34 36 29 38 46 44 40 44 38 37 37 36 36 35 36 36 36 35 35 34 33 32 32 35 35 33 32 32 32 32 31 29 29 28 27
31 31 32 33 31 28 34 34 36 37 34 31 32 33 35 36 35 34 34 34 34 33 33 33 32 31 32 32 33 31 32 33 32 32 31 31 31 31 31 31 30 29 28 27
29 34 30 34 34 40 38 38 39 37 33 34 33 35 35 34 33 32 32 32 32 31 32 31 30 29 29 28 31 30 30 33 33 32 32 32 32 32 31 30 30 28 27 27
30 33 31 34 35 34 35 35 35 35 36 35 35 34 34 35 34 33 32 31 30 25 25 24 28 25 23 24 27 27 27 28 30 30 28 27 29 26 28 30 27 25 24 24
28 31 29 30 33 33 34 33 36 34 34 36 36 35 35 35 33 33 29 26 25 24 23 24 27 25 22 22 21 20 22 25 24 23 20 20 21 22 19 19 21 23 20 25
29 30 31 29 32 34 34 34 35 34 36 36 36 33 32 33 33 30 28 27 25 25 22 24 22 22 18 18 16 14 14 19 20 18 17 18 19 18 18 18 15 25 24 28

GFSCGP_sfc_temp_060.txt.gz
Temp
46 44 41 46 44 43 42 38 38 42 47 44 44 44 49 51 44 46 46 46 48 49 55 49 47 46 44 44 45 45 48 48 52 51 50 50 48 48 47 48 49 49 49 49
43 40 48 49 46 44 41 38 38 43 45 45 44 44 49 48 48 49 52 51 50 51 47 46 45 44 44 45 45 45 51 48 53 54 51 50 47 45 45 46 46 47 46 46
41 46 48 48 43 43 40 39 38 42 42 41 38 38 41 48 48 50 50 54 53 54 54 47 44 45 44 44 44 46 49 50 51 50 47 46 47 46 45 44 43 43 44 42
42 47 47 42 42 46 38 45 43 40 38 33 37 32 40 46 48 47 52 50 53 54 52 49 47 44 44 46 46 46 47 52 51 49 46 48 44 43 45 43 42 41 41 40
44 43 43 42 44 46 43 44 42 39 35 32 31 33 37 38 44 51 53 53 53 54 51 49 47 49 48 46 45 46 46 49 49 49 49 48 44 40 43 41 39 39 38 38
43 44 47 47 45 47 46 42 39 34 34 29 35 36 40 39 47 49 56 53 52 49 47 46 45 45 44 44 45 45 45 46 47 49 48 48 42 41 40 39 38 38 37 34
39 42 43 47 43 43 43 41 31 28 23 29 30 31 45 45 47 50 54 54 46 46 44 42 41 41 41 42 45 46 46 46 46 46 47 46 45 44 43 41 40 37 36 31
38 37 43 47 49 43 41 42 31 22 22 28 31 29 38 46 50 50 49 50 43 44 43 41 40 41 41 42 45 46 47 46 46 45 43 44 44 44 44 44 42 42 40 35
34 35 40 42 44 52 39 37 43 36 16 22 35 36 44 45 45 44 47 43 43 43 43 40 39 39 40 41 44 45 46 45 46 45 42 41 44 43 42 41 41 40 39 35
42 35 36 38 44 41 41 43 33 30 22 17 30 31 36 44 47 47 48 46 44 42 42 39 38 38 39 41 44 45 45 43 44 44 42 42 43 43 42 40 38 36 36 35
44 40 33 36 36 36 38 36 34 35 30 23 20 37 40 47 48 48 48 47 45 43 41 39 37 37 38 39 39 41 42 43 42 42 41 42 41 40 39 38 38 37 34 32
44 40 31 34 36 37 36 38 38 31 26 26 27 39 43 44 44 45 48 46 41 41 41 38 36 36 35 36 36 37 41 42 42 41 40 40 39 38 38 38 36 35 32 33
45 37 23 31 33 34 34 37 42 36 32 29 27 39 41 41 43 43 45 43 44 40 37 36 35 34 35 35 37 38 38 40 40 38 39 38 37 37 37 36 35 33 32 32
49 38 34 34 34 36 32 35 38 42 33 36 34 44 46 41 45 45 46 44 43 41 39 36 34 35 36 37 37 37 38 38 37 38 39 37 37 37 37 35 34 33 33 32
46 33 36 39 40 36 36 35 38 39 42 35 43 42 50 52 48 51 50 45 44 42 39 38 37 36 36 36 37 38 38 37 37 37 37 37 36 37 36 34 33 33 32 33
44 33 35 33 37 38 36 37 38 40 43 44 45 44 53 50 48 43 49 52 47 43 43 41 39 38 37 38 38 38 38 36 36 36 35 37 35 35 34 32 32 32 32 31
39 36 33 32 36 34 30 35 39 39 43 44 38 47 52 50 46 52 49 46 46 46 47 44 41 41 40 39 40 38 38 36 34 34 32 32 34 33 33 32 31 31 30 31
35 35 36 33 32 26 39 45 46 43 44 46 46 49 51 51 52 49 53 48 46 47 46 44 44 43 42 40 39 39 36 34 34 34 32 32 33 33 32 31 31 31 31 30
39 35 33 31 32 36 37 37 37 38 40 48 46 49 51 53 38 47 49 47 51 48 46 47 46 44 39 39 39 36 33 33 33 33 32 32 33 32 31 30 30 31 30 29
37 37 33 31 29 26 36 35 39 43 35 46 46 48 48 44 37 47 41 39 42 41 40 40 40 38 36 34 35 34 32 31 32 33 32 33 34 32 31 31 30 29 28 28
30 31 30 32 31 33 33 32 37 33 35 30 33 42 41 38 45 39 36 37 35 35 36 35 34 34 33 32 33 31 30 30 31 31 31 32 33 32 32 30 29 27 27 27
31 31 31 32 30 28 35 33 35 38 34 32 33 35 36 36 37 36 34 34 34 32 32 32 31 30 30 30 31 28 28 28 28 29 29 30 31 31 30 30 28 28 27 27
28 37 34 35 34 39 36 35 37 37 38 35 35 38 36 35 34 33 33 31 30 29 31 29 28 27 27 25 28 27 25 28 28 29 29 30 31 30 30 30 28 28 28 28
31 33 30 30 34 36 36 36 35 35 36 36 34 34 34 33 34 32 32 31 30 24 25 24 27 25 23 24 27 27 28 32 33 31 30 30 30 30 31 31 31 31 29 28
31 32 30 30 33 34 35 33 34 35 35 35 34 34 35 35 33 32 29 26 25 23 23 24 26 24 21 22 21 23 25 29 28 27 25 27 28 29 27 24 27 27 23 29
30 31 30 29 35 35 34 32 33 34 34 34 34 33 33 33 34 30 26 26 25 25 24 25 23 22 19 19 17 17 20 24 24 21 21 22 21 20 21 20 17 27 27 30

GFSCGP_sfc_temp_063.txt.gz
Temp
46 45 42 46 44 44 43 40 40 43 48 46 45 45 50 52 49 49 51 52 53 53 59 55 53 52 50 49 49 50 51 52 54 53 52 52 50 50 50 50 52 53 54 54
43 40 48 48 46 45 42 39 41 44 45 46 45 45 51 50 54 56 57 56 55 57 53 51 51 50 50 51 49 49 51 51 53 56 54 53 50 48 48 48 47 49 50 51
41 46 47 47 42 42 40 39 39 43 43 42 40 39 42 49 51 54 53 57 56 57 59 55 49 50 50 48 48 50 51 51 53 54 50 47 48 48 45 46 45 46 47 47
42 46 46 43 41 45 38 44 43 41 40 35 39 33 41 46 50 48 52 53 55 57 56 54 49 49 48 49 50 50 50 51 52 50 51 49 50 47 46 47 45 44 44 45
44 42 42 41 44 46 42 42 41 39 36 35 34 34 41 41 45 50 56 55 55 54 54 54 50 51 51 50 48 49 50 51 51 50 52 50 48 48 46 45 43 41 41 42
42 43 46 46 44 46 44 41 39 35 35 29 36 38 45 41 47 50 53 56 55 51 51 50 49 48 47 46 47 48 48 50 48 49 50 51 48 43 43 42 41 40 40 39
39 41 43 46 42 43 42 40 31 28 24 30 31 34 49 46 48 51 56 59 51 50 50 48 46 44 43 43 45 47 48 48 48 49 49 50 47 46 45 43 43 39 38 37
37 35 42 46 47 42 39 41 32 23 23 29 31 30 40 47 49 49 51 51 47 48 49 48 46 43 42 42 44 46 47 47 47 49 49 49 47 46 46 46 44 43 42 41
34 35 40 41 43 50 39 36 44 36 16 24 34 37 44 44 46 47 48 45 45 47 47 46 44 42 42 42 44 46 48 48 47 48 48 46 46 46 46 45 44 43 43 41
41 35 37 39 43 41 42 44 35 31 22 18 31 33 41 44 48 50 48 49 47 46 46 45 43 41 41 42 44 46 49 49 46 46 46 45 45 45 45 44 42 40 39 39
43 39 33 37 36 37 38 36 35 36 31 24 21 36 42 48 49 48 49 49 48 46 47 45 42 40 40 40 41 44 46 43 43 44 44 43 42 42 43 42 41 39 38 37
44 40 32 34 36 36 35 37 37 31 26 26 27 40 44 46 47 44 46 47 46 45 46 43 41 39 38 39 39 42 43 42 43 43 43 42 40 41 40 40 39 38 38 37
44 37 23 31 32 33 33 36 41 36 32 29 28 40 41 42 44 45 46 45 46 45 43 41 39 38 38 38 38 39 41 42 42 42 41 41 40 40 40 38 37 37 36 36
49 38 34 33 34 35 32 33 37 41 29 36 33 43 49 44 47 47 48 47 46 45 44 42 40 38 38 37 38 38 39 40 40 40 41 40 39 39 39 38 36 36 36 35
46 36 35 40 39 37 37 35 38 39 42 36 43 42 49 51 49 53 54 48 47 47 43 42 41 40 38 37 38 39 40 38 39 39 40 40 39 39 38 36 35 35 35 35
43 35 36 34 38 39 36 37 36 39 42 43 44 43 56 56 50 47 50 55 54 49 47 46 45 41 38 39 38 38 39 38 38 38 38 39 37 36 35 34 34 34 33 33
36 36 33 31 37 36 30 36 37 40 42 43 37 46 52 50 48 50 48 48 49 48 50 48 46 44 42 40 41 39 39 38 36 37 36 35 35 34 34 34 33 32 32 32
34 32 32 32 34 25 38 48 44 42 43 46 47 49 51 51 48 49 52 50 49 47 48 49 48 46 44 42 39 40 37 36 35 35 35 35 34 33 33 33 32 33 32 31
39 35 31 29 30 35 36 37 36 36 39 47 45 48 51 52 40 49 54 48 52 51 48 46 46 45 43 40 39 36 34 34 34 34 33 33 33 32 32 31 31 32 31 31
37 38 32 31 27 25 36 40 39 42 35 45 46 47 47 43 37 47 42 40 42 41 39 39 39 39 38 36 35 34 33 32 32 33 33 32 32 31 30 32 31 31 31 30
28 31 29 31 29 32 37 36 38 32 34 31 33 42 38 39 46 42 37 40 36 37 36 36 35 36 35 33 32 31 30 30 31 31 30 30 31 30 31 31 31 30 28 27
29 29 29 30 28 26 38 36 37 40 36 37 36 37 38 38 39 39 36 36 36 34 34 34 32 31 30 30 30 28 28 28 28 29 28 28 28 30 30 28 28 28 28 26
27 33 30 32 32 39 37 41 39 37 35 36 34 37 35 35 35 36 34 32 32 30 31 28 26 27 27 25 27 27 25 26 26 27 26 27 28 29 30 29 28 27 28 27
30 31 28 30 31 32 37 39 37 37 37 38 36 35 34 33 34 34 32 31 29 25 25 23 23 23 22 23 25 24 24 25 27 28 28 29 29 29 30 30 30 29 28 28
27 29 26 29 35 38 39 35 35 36 37 36 35 34 34 34 34 33 29 26 26 26 25 26 26 22 21 22 23 24 26 33 31 30 29 30 30 30 29 29 30 30 31 32
27 29 29 30 33 35 37 33 34 34 34 35 33 32 31 31 32 28 26 26 26 25 25 24 22 21 19 19 18 20 24 28 28 26 26 27 27 26 26 25 23 30 31 33

GFSCGP_sfc_temp_066.txt.gz
Temp
59 61 58 64 63 60 59 56 56 61 59 57 60 61 66 70 69 68 70 71 73 73 77 76 73 71 68 68 67 67 65 66 66 65 63 61 57 58 55 55 57 58 60 59
58 56 64 59 58 57 56 56 57 60 55 56 59 58 65 67 67 71 73 74 75 76 76 73 71 69 66 67 65 65 65 66 65 66 65 64 60 58 59 53 53 54 55 56
58 60 59 57 53 53 55 54 56 55 54 55 53 55 61 66 65 67 69 72 74 75 75 76 71 68 67 65 64 64 64 65 65 65 65 60 59 56 50 50 49 49 52 52
57 58 54 53 53 56 52 57 55 52 52 50 53 49 61 66 65 63 67 72 73 73 73 72 73 67 66 65 66 64 64 64 64 64 61 59 59 56 54 51 51 47 48 48
55 50 51 51 54 56 54 53 53 51 51 47 53 46 58 55 59 64 68 70 73 74 72 71 70 67 68 65 63 63 63 63 62 63 61 61 61 61 55 55 47 45 45 46
52 53 55 56 51 56 52 52 49 49 49 42 54 49 56 63 62 65 68 71 72 72 69 69 68 66 65 63 61 60 61 61 61 60 60 60 61 57 50 51 48 44 44 45
48 50 52 53 49 51 53 52 44 40 37 40 46 45 55 62 62 63 68 72 69 67 68 67 64 61 60 57 57 58 59 59 60 58 59 60 61 57 54 49 48 45 45 46
46 43 50 54 56 51 48 53 45 34 37 46 38 40 55 61 63 63 65 66 66 62 65 66 65 62 59 56 56 57 56 57 59 57 58 59 60 57 57 52 54 51 51 53
45 45 49 49 55 58 47 43 55 45 31 37 49 55 61 57 59 61 60 65 65 65 64 64 64 61 59 55 55 56 56 55 58 56 57 57 58 55 54 51 56 55 55 51
52 43 46 47 52 51 51 56 43 44 33 33 45 47 52 57 62 63 62 63 64 64 64 63 62 59 57 56 56 55 56 55 55 55 56 56 55 55 55 51 50 48 51 45
54 47 43 46 46 49 48 47 45 48 43 38 38 49 64 62 64 62 63 61 61 61 61 63 61 57 55 54 54 54 54 54 53 53 55 53 52 52 50 46 46 45 44 40
50 44 40 46 49 49 49 51 51 42 36 40 40 45 58 60 59 57 58 58 60 58 60 61 59 56 53 53 53 53 53 52 53 53 53 52 51 51 49 46 46 45 42 41
50 41 32 38 42 43 43 48 49 51 41 37 37 46 55 55 58 58 58 60 60 58 60 58 55 55 55 54 53 52 52 51 51 52 51 50 50 49 49 47 46 45 43 40
48 39 37 37 45 47 39 44 46 47 38 40 43 49 58 58 59 60 62 62 61 61 60 59 58 57 56 54 53 52 51 51 50 50 49 49 49 48 47 44 42 43 42 39
45 33 38 41 46 46 45 45 45 42 46 42 47 49 56 60 61 64 66 67 65 65 62 61 59 59 57 53 52 51 51 50 49 48 48 48 47 47 45 41 40 40 39 38
48 34 40 36 44 44 41 45 45 44 46 46 49 49 61 63 65 63 62 63 63 65 67 66 58 57 53 53 52 51 50 49 47 47 46 46 44 42 40 38 37 36 36 35
34 33 33 31 40 38 31 37 43 46 49 49 43 51 58 57 58 58 60 60 60 62 63 63 61 60 57 56 54 52 51 49 43 42 41 41 40 39 38 36 35 34 34 35
34 33 32 29 32 24 39 51 51 46 48 50 50 52 55 57 60 59 61 59 59 59 58 59 60 62 59 55 52 51 46 43 40 39 38 38 38 37 37 35 35 34 34 33
41 35 31 27 28 35 41 46 45 43 43 51 50 52 55 57 55 56 61 60 60 60 60 57 55 53 53 51 50 45 41 40 39 38 38 37 37 35 35 34 34 34 33 32
38 39 32 31 26 24 42 48 46 49 36 53 52 51 52 53 44 51 56 53 52 50 47 46 46 45 45 46 42 39 38 37 36 38 38 37 36 34 34 35 34 34 33 31
30 30 28 28 27 34 41 41 44 32 37 38 40 47 47 46 52 55 47 49 46 43 43 43 43 40 39 38 37 36 36 35 36 36 35 35 35 34 35 34 34 32 31 29
31 29 29 30 27 26 42 39 37 39 39 42 43 44 43 45 46 46 47 45 44 41 40 38 37 35 35 35 35 34 34 33 33 33 33 32 33 33 33 32 32 31 29 28
29 36 32 32 31 43 40 42 45 40 37 40 40 43 43 42 44 45 44 42 40 36 34 33 33 32 32 31 33 32 31 31 30 30 29 30 32 32 32 31 30 31 30 29
38 42 34 35 41 41 40 42 41 41 38 38 37 39 39 38 41 38 37 35 34 31 30 30 30 28 27 28 28 30 29 30 29 29 29 30 30 31 31 32 32 31 30 29
38 36 33 33 38 40 39 41 41 40 40 39 39 37 38 37 37 37 33 31 30 30 29 28 27 25 24 26 27 29 31 32 31 31 30 31 31 31 31 31 31 31 32 31
39 36 33 32 42 40 41 41 39 39 39 39 36 36 36 34 36 33 29 30 29 28 27 25 23 22 21 22 22 24 29 32 31 29 29 30 31 31 30 29 29 33 33 33

GFSCGP_sfc_temp_069.txt.gz
Temp
66 63 59 65 68 68 64 62 61 67 64 61 63 65 70 75 76 75 77 77 78 80 84 83 82 79 77 77 76 75 73 71 72 70 69 69 69 70 64 63 66 66 64 65
60 57 67 67 65 62 62 59 61 66 63 58 63 62 69 72 73 75 76 77 79 81 83 83 82 79 75 74 74 73 73 72 71 71 70 71 70 69 67 62 61 60 60 61
59 63 66 61 59 58 60 59 60 60 60 61 58 58 65 73 74 74 76 78 79 80 81 83 81 78 75 72 72 71 71 71 71 70 70 69 68 65 60 60 56 54 54 56
61 67 60 58 58 60 55 66 61 59 55 53 60 51 64 70 71 74 74 75 78 80 81 80 81 79 75 72 72 71 71 71 70 70 67 65 63 60 61 60 56 52 51 53
59 56 56 55 59 62 58 59 58 57 54 53 55 49 60 69 66 71 75 76 78 79 80 80 79 76 77 73 70 70 70 70 69 68 67 65 61 63 67 63 57 52 47 49
59 58 61 61 56 60 59 56 55 55 54 44 55 55 58 64 69 73 75 77 78 79 77 76 76 75 73 72 68 67 68 67 68 67 66 64 62 63 63 59 54 50 48 46
55 54 57 57 53 55 57 54 45 43 41 42 55 51 59 66 70 70 73 73 77 73 73 74 71 67 67 66 64 64 65 65 66 64 64 64 63 64 63 59 55 48 45 45
48 45 53 56 57 54 51 55 46 35 40 46 44 43 58 69 72 70 70 71 71 70 70 69 71 70 67 63 62 62 61 63 64 64 63 63 63 63 62 60 58 55 50 50
51 50 57 57 60 61 51 46 58 46 39 39 49 57 66 65 64 67 70 71 70 71 70 68 70 70 67 62 61 61 61 60 63 63 62 61 62 62 61 60 58 56 54 53
56 46 53 51 55 56 54 59 44 46 34 33 45 49 53 61 65 69 67 68 70 69 69 68 68 67 65 63 62 61 61 60 60 62 61 60 60 61 60 60 57 55 53 51
56 50 45 49 48 51 49 47 49 51 47 38 38 48 66 65 65 65 66 66 65 64 66 68 68 65 62 61 60 59 59 59 58 59 59 58 58 59 58 57 55 54 53 49
54 50 42 48 57 57 57 53 52 43 40 45 43 45 66 65 63 63 64 66 65 63 64 66 66 63 60 59 59 58 58 57 58 58 56 56 57 57 55 55 54 52 47 43
47 43 33 39 48 48 46 52 52 53 47 38 36 44 64 65 64 65 62 65 67 64 68 66 63 62 62 61 59 58 58 57 57 56 55 55 54 54 53 52 51 47 45 42
47 37 37 38 46 51 43 47 51 48 38 41 42 48 57 61 64 66 64 67 70 68 68 69 67 64 63 62 62 60 59 57 55 54 53 52 52 53 52 52 49 45 44 39
45 33 37 41 45 47 46 46 48 45 47 40 46 48 55 60 63 66 69 69 68 68 68 70 66 66 66 62 61 59 59 58 56 53 52 52 52 52 51 49 46 44 41 40
44 34 38 33 42 43 38 44 45 47 47 47 50 50 62 64 66 65 66 67 66 66 67 68 68 68 61 63 60 60 59 55 54 52 50 50 48 46 44 42 40 39 38 37
34 33 32 30 39 34 30 37 44 46 50 50 44 53 60 59 59 60 62 64 63 64 65 66 66 66 63 60 59 59 58 55 49 47 44 41 41 40 39 38 37 37 36 35
34 33 32 29 32 23 40 52 51 47 49 52 52 54 56 57 60 61 64 63 62 63 64 64 64 65 62 58 57 57 51 49 44 42 40 39 39 38 38 37 36 36 36 34
44 36 30 26 28 36 42 48 47 46 46 54 52 54 56 59 58 58 63 64 63 63 61 55 54 53 52 52 51 45 42 41 40 39 39 38 38 36 36 35 35 36 34 33
40 41 32 31 25 23 42 52 57 52 35 40 43 45 46 50 44 53 54 53 53 53 51 49 48 47 45 45 41 39 39 38 38 38 38 38 37 35 35 35 34 34 34 32
30 30 27 28 26 31 42 41 47 32 34 37 39 41 43 43 47 50 51 52 51 47 45 45 45 41 40 38 36 36 37 35 36 35 35 34 35 34 35 34 34 33 31 30
32 30 29 31 26 24 45 42 34 37 44 41 39 43 40 43 44 46 49 47 45 44 41 39 38 37 37 36 35 35 35 34 33 33 32 32 33 33 33 32 32 32 30 28
28 36 33 34 34 43 48 44 48 46 42 42 40 42 42 41 41 42 43 42 41 39 35 34 32 33 32 31 31 33 31 31 31 30 29 31 31 32 32 31 30 29 29 28
39 45 36 35 40 43 46 48 46 45 43 43 42 42 41 40 40 38 38 36 35 33 31 31 31 28 27 29 29 29 30 30 29 29 29 30 30 30 31 32 32 31 30 29
39 40 35 35 40 42 43 45 46 44 42 41 41 41 40 39 37 38 37 34 33 31 30 29 28 26 25 27 27 29 31 30 30 30 30 31 31 31 31 31 32 31 31 31
39 36 33 32 42 43 44 47 45 41 41 42 39 39 38 37 36 37 33 32 31 30 28 26 25 24 24 24 23 25 29 30 30 29 30 30 31 31 30 30 30 33 33 33

GFSCGP_sfc_temp_072.txt.gz
Temp
58 52 48 55 58 59 54 52 51 55 57 52 52 54 59 64 63 61 62 63 64 66 70 71 70 68 67 66 68 70 67 66 66 65 63 61 63 61 62 63 63 64 65 67
52 47 59 62 58 56 52 50 49 56 56 51 52 52 58 61 63 64 63 63 65 66 68 70 68 65 66 67 66 67 68 66 66 66 65 64 63 59 60 59 59 61 61 62
50 56 62 59 54 53 51 49 50 51 52 51 46 45 52 60 64 65 65 67 66 67 66 67 66 65 63 62 63 65 67 67 66 65 62 59 58 55 54 55 56 57 58 61
53 59 57 52 52 54 47 55 55 52 46 39 48 35 49 58 59 61 62 61 62 64 66 67 68 63 62 65 64 63 63 63 64 63 61 61 60 58 57 54 53 55 54 57
50 51 51 50 53 56 50 53 51 48 43 40 42 37 45 54 54 59 63 63 64 65 66 65 65 66 63 60 58 59 60 61 61 62 62 59 56 55 52 51 50 50 51 54
50 53 53 53 52 53 55 50 48 45 44 33 45 42 43 50 53 56 60 61 64 62 60 62 62 61 60 58 57 57 58 59 60 61 60 58 57 52 51 51 51 51 50 50
48 49 51 53 47 50 48 45 32 30 28 30 42 40 48 56 60 57 59 60 59 57 58 59 57 57 56 55 55 55 56 56 57 56 57 57 54 52 52 51 50 49 47 46
42 39 47 51 50 45 44 46 33 25 27 31 37 35 43 56 56 57 58 59 57 56 59 58 59 57 55 55 54 54 54 54 55 55 54 55 55 53 54 52 51 50 49 49
44 44 50 51 51 54 44 39 49 37 26 26 37 45 55 55 56 56 58 59 58 58 58 57 58 58 55 52 52 52 53 53 54 54 53 53 53 53 54 52 51 50 49 48
47 39 46 45 50 49 46 50 37 36 23 21 33 35 43 51 58 58 55 54 55 56 56 57 57 56 54 52 52 52 53 51 52 53 52 52 52 52 52 51 50 48 47 47
49 43 37 44 42 43 41 41 42 44 37 26 28 37 52 52 53 53 54 56 53 53 54 55 54 53 53 52 51 50 51 51 50 51 51 50 50 50 51 50 49 48 46 45
48 44 33 40 46 46 46 45 46 34 31 32 34 40 53 54 53 53 53 55 52 54 55 54 53 52 51 50 50 49 49 49 50 50 50 49 49 49 49 48 48 46 45 41
45 39 26 33 40 42 41 45 48 47 39 35 30 38 55 53 52 52 51 53 56 55 55 55 53 52 52 51 50 50 49 49 49 49 48 47 47 47 47 47 46 44 41 38
48 38 34 31 38 43 36 40 45 44 34 37 38 43 51 54 53 57 57 55 55 56 58 56 55 53 54 53 51 50 50 49 48 48 47 46 46 47 46 46 44 41 38 35
41 33 36 38 39 40 39 38 41 38 39 37 41 42 49 54 54 56 59 57 57 58 59 59 58 57 56 53 51 51 51 49 48 46 46 47 46 46 45 42 40 37 36 34
41 31 34 29 37 39 35 39 40 41 42 42 43 43 54 57 57 57 58 58 56 57 58 58 58 56 55 55 53 52 50 49 47 47 46 45 42 41 40 39 37 35 34 33
34 33 31 25 32 31 28 34 38 40 44 44 38 46 53 52 54 54 55 56 57 58 59 56 56 56 54 52 52 50 50 48 43 41 38 37 37 37 37 36 35 33 33 32
31 30 31 22 24 18 35 46 45 42 44 46 48 49 51 51 52 54 55 53 54 54 52 50 47 47 47 46 45 45 41 41 40 38 35 33 35 35 33 33 33 31 31 31
39 32 24 16 14 28 34 41 40 38 39 48 40 41 42 44 44 48 48 48 47 47 46 44 44 44 43 42 39 35 36 36 37 37 35 33 32 32 32 31 30 29 30 28
37 37 29 17 14 9 33 40 43 44 31 38 37 39 39 40 33 40 43 46 45 44 42 41 40 40 37 35 33 33 33 32 33 34 35 34 31 30 30 30 29 28 28 31
27 29 25 25 23 26 36 36 38 25 30 32 34 38 38 36 43 45 44 44 43 42 40 38 36 35 34 32 32 31 31 30 31 30 30 29 29 27 27 27 27 28 30 29
24 22 21 27 23 20 40 33 31 35 35 37 37 40 38 40 42 42 43 41 41 38 37 34 31 32 31 31 29 29 28 29 26 26 26 25 24 27 28 30 30 30 29 28
23 29 21 26 23 37 39 36 40 41 38 37 38 39 40 38 39 39 40 38 36 35 33 31 28 28 28 26 26 27 28 28 27 27 23 23 23 25 25 25 28 28 28 27
30 35 29 27 35 38 39 40 40 42 40 39 38 38 38 37 37 36 36 35 33 29 26 25 25 23 23 24 26 25 26 25 27 27 26 24 24 25 25 26 26 26 27 26
27 29 25 27 34 34 36 38 40 40 38 36 37 37 37 37 36 34 33 32 30 27 26 24 23 23 23 23 24 27 25 26 26 27 28 29 29 29 28 28 26 24 24 28
31 30 27 27 35 36 37 41 39 37 37 37 35 34 35 34 33 32 31 29 27 26 24 23 21 20 20 20 19 20 26 24 23 25 28 29 29 27 23 24 29 33 32 33

GFSCGP_sfc_temp_075.txt.gz
Temp
53 47 43 48 50 51 49 47 43 48 54 50 48 48 52 56 55 54 54 55 57 60 66 64 66 66 62 63 62 66 65 64 66 63 63 64 64 63 60 63 63 65 66 66
48 43 52 54 54 53 49 45 44 48 51 49 48 49 53 54 58 62 61 56 57 57 61 64 62 61 62 65 66 65 66 64 66 67 67 65 63 58 65 59 60 63 65 65
45 51 56 55 49 50 46 45 44 47 47 47 43 42 47 54 54 58 58 59 59 60 61 61 62 59 62 61 62 65 65 64 66 66 60 56 56 55 55 56 59 58 62 64
48 54 53 50 49 51 43 49 50 48 42 37 44 32 42 53 57 55 59 57 58 58 59 61 63 58 57 64 65 65 64 63 65 63 61 61 62 60 63 63 57 53 56 60
46 48 48 47 50 52 47 50 48 45 40 36 37 33 40 45 49 54 58 57 58 57 58 59 61 61 58 59 56 56 58 59 62 62 62 60 60 60 51 50 51 50 50 55
47 50 50 51 49 51 52 48 46 42 39 30 38 39 36 45 51 52 55 55 57 58 57 58 55 58 56 54 53 53 56 56 56 61 58 57 58 51 49 48 48 47 49 51
43 45 47 51 46 49 48 43 31 29 26 28 37 34 42 50 52 55 56 55 53 55 56 58 58 59 54 51 52 52 53 54 53 53 54 53 52 50 51 50 50 47 48 49
37 35 46 50 48 44 43 43 31 23 25 29 35 33 44 52 56 56 56 56 52 53 54 54 55 55 53 51 51 51 51 52 52 52 52 52 52 53 53 52 50 50 50 50
38 39 46 47 49 52 42 38 45 35 20 25 34 39 50 52 54 56 54 53 52 52 53 54 53 53 53 51 51 51 51 51 51 51 51 51 51 51 51 50 50 50 49 48
45 37 42 43 48 47 45 48 36 33 22 20 30 32 40 48 52 49 50 51 51 50 51 52 52 52 50 49 49 49 50 50 50 50 50 50 50 50 50 49 49 48 48 47
46 42 36 41 40 40 40 39 40 40 33 24 24 34 46 49 51 51 49 51 51 52 52 52 52 51 51 50 49 49 48 49 49 49 49 48 49 49 49 49 49 48 46 46
44 41 30 37 43 43 42 42 42 32 29 31 30 39 47 50 50 53 53 54 51 50 52 51 51 50 49 49 48 48 48 48 48 48 48 48 48 47 47 48 47 46 46 43
45 36 22 31 37 40 38 41 44 43 34 32 25 38 52 50 49 50 51 52 54 53 53 53 51 50 49 49 48 48 47 47 47 47 46 46 46 46 47 47 45 44 43 42
46 37 32 28 34 38 32 35 40 39 26 32 35 40 49 48 48 50 51 55 56 54 53 53 53 51 51 51 49 48 48 47 47 46 45 45 46 47 47 45 44 43 41 39
42 33 34 36 38 39 36 36 37 37 36 33 38 38 45 50 51 52 53 52 53 53 53 54 53 53 53 51 50 50 49 48 46 45 45 46 46 44 44 42 40 39 37 36
40 28 34 30 36 37 33 35 36 39 39 41 41 40 51 53 53 49 51 52 52 54 54 54 53 52 50 50 48 49 48 47 45 44 44 44 41 40 39 39 38 37 35 34
35 32 29 17 30 31 23 32 35 37 40 41 36 44 50 47 46 43 45 46 45 46 46 46 45 46 45 44 45 44 43 42 40 39 38 37 37 36 37 37 36 35 34 32
33 32 30 12 17 7 31 39 38 38 40 42 43 42 39 40 42 43 43 42 44 45 45 45 44 43 42 41 40 39 36 36 36 35 34 34 34 34 33 32 33 32 31 30
35 28 16 12 4 22 30 36 37 35 34 37 37 38 39 40 39 41 42 42 43 44 43 41 40 40 39 38 36 32 33 33 34 35 34 33 31 32 31 31 30 28 27 26
33 35 25 6 10 9 28 35 42 42 25 37 37 37 38 38 34 38 44 41 42 42 41 41 37 37 35 33 31 31 32 31 32 32 33 33 31 29 28 29 27 25 26 29
24 27 25 23 21 20 32 34 38 21 27 30 34 37 36 34 39 45 43 42 41 41 41 40 37 35 34 33 30 30 30 30 30 29 29 28 28 26 26 26 30 31 31 30
21 18 18 16 19 17 37 32 30 33 33 35 36 37 36 39 40 39 40 38 38 39 38 35 31 32 33 29 28 28 29 29 26 25 26 24 22 25 28 32 30 30 29 28
19 27 20 25 25 36 36 35 38 38 36 36 34 37 38 36 37 38 37 35 34 34 34 31 27 28 29 26 27 25 26 26 25 20 19 19 21 23 23 30 29 28 28 27
28 31 25 25 31 31 34 36 38 40 38 38 36 36 35 35 35 35 34 34 33 29 27 26 25 23 23 23 24 26 24 24 19 20 22 21 20 20 22 24 24 26 27 26
26 27 20 21 31 31 34 35 37 38 36 37 35 36 36 35 35 34 32 30 29 27 25 22 25 23 20 20 20 24 26 20 20 20 24 27 24 21 22 23 19 21 21 25
28 27 26 21 32 32 34 37 37 36 37 37 35 34 33 34 34 31 29 27 26 24 23 21 21 18 16 16 19 18 23 25 19 28 27 27 26 26 26 26 27 32 32 33

GFSCGP_sfc_temp_078.txt.gz
Temp
50 46 42 48 48 47 45 43 42 45 51 48 47 46 51 55 53 51 52 52 53 55 64 61 61 61 60 60 60 64 65 67 67 65 63 63 63 65 63 65 66 66 65 64
46 41 50 50 49 48 44 42 41 46 48 47 45 47 51 52 54 55 55 54 54 54 57 61 60 57 57 64 62 63 64 66 66 68 68 68 66 63 65 64 63 65 65 64
44 49 53 52 47 48 45 43 41 44 44 43 40 41 45 52 51 55 55 55 55 56 57 57 58 58 55 56 60 63 64 65 66 68 64 56 56 55 56 56 61 62 64 65
46 51 50 48 46 48 42 49 47 45 41 36 41 32 40 49 53 53 56 51 54 55 55 57 58 56 55 58 59 61 62 63 64 65 62 63 63 61 62 63 60 57 60 64
45 47 47 45 48 50 46 48 45 43 38 34 34 33 39 43 48 52 54 54 54 55 52 56 56 58 57 55 55 54 56 59 61 62 63 61 62 62 55 52 54 52 54 56
46 48 49 50 47 49 50 46 43 38 36 30 36 37 36 43 47 51 54 55 54 55 55 56 57 56 54 52 50 50 54 55 57 59 59 59 60 55 50 49 50 50 50 54
41 43 45 49 45 47 45 42 31 29 26 28 33 33 39 48 51 50 53 51 51 50 51 52 53 52 52 52 50 50 51 52 52 55 55 54 56 53 52 51 51 47 48 49
36 34 44 48 47 44 41 41 31 23 24 29 34 32 44 47 51 51 51 49 49 50 50 50 51 51 51 51 52 50 50 50 50 51 51 51 52 54 54 51 50 51 51 52
36 38 43 45 46 50 41 37 43 33 17 23 33 38 49 50 48 50 51 51 50 50 51 51 52 51 50 49 50 50 50 50 50 50 49 49 49 50 51 49 50 51 50 49
44 35 40 42 46 44 43 46 35 32 22 19 29 31 39 45 47 50 51 50 51 52 53 52 51 51 50 49 49 49 48 49 49 49 49 49 49 49 50 49 49 48 48 47
45 40 35 40 39 39 40 38 39 38 32 23 20 32 43 46 50 48 49 51 50 51 51 50 51 50 48 48 48 47 48 48 48 48 48 47 47 48 48 49 49 49 47 46
45 39 30 36 39 42 42 41 41 32 28 28 29 35 48 48 47 49 49 50 49 50 52 50 49 49 48 48 47 48 47 47 47 48 47 47 47 46 46 47 47 46 45 43
46 36 27 32 38 40 39 39 42 39 33 27 25 34 45 46 45 46 46 46 49 49 50 51 51 50 50 50 49 48 47 47 47 46 46 45 45 45 45 45 45 44 44 42
45 36 33 29 32 37 33 33 37 37 26 29 36 40 47 45 45 49 49 50 49 49 50 49 49 50 51 49 48 48 47 46 46 45 45 44 45 45 44 44 44 43 42 41
42 29 33 34 36 37 37 35 35 34 34 30 32 35 41 45 46 48 47 47 48 47 46 46 45 45 44 46 45 46 46 45 44 44 43 45 45 43 43 41 40 39 39 39
39 30 33 29 36 36 32 35 36 37 37 39 37 38 49 50 45 43 44 44 44 44 45 45 45 44 43 43 43 43 42 42 40 41 40 41 39 38 38 38 38 37 37 36
33 32 28 21 29 31 24 32 34 36 39 42 36 42 42 39 40 40 41 42 42 43 44 43 43 42 41 40 41 39 39 38 36 34 35 35 35 35 37 36 36 36 35 34
31 27 22 15 19 16 31 35 36 37 40 42 41 38 37 38 39 41 42 41 42 42 42 42 41 40 39 38 37 36 34 34 34 34 33 33 33 33 33 32 32 33 33 31
35 29 18 16 8 22 30 33 32 32 33 38 37 37 37 39 36 36 42 41 41 40 41 40 39 38 37 36 34 31 32 32 33 34 33 33 32 32 31 30 30 28 27 25
33 33 25 4 4 6 26 31 38 38 24 34 36 37 34 35 30 33 42 41 39 40 39 38 37 36 34 34 31 31 31 31 33 33 32 32 31 29 28 29 28 25 26 31
27 28 25 10 6 16 30 34 36 19 26 28 34 36 35 33 37 41 39 38 37 38 38 36 34 32 32 31 29 29 29 31 31 30 30 28 28 27 27 27 30 31 31 30
21 20 18 23 21 16 33 32 29 32 31 34 33 34 35 37 38 37 39 34 34 36 34 33 31 31 31 29 27 27 27 29 28 28 27 26 25 26 27 28 30 30 30 29
20 25 20 23 24 34 34 34 36 37 35 34 33 36 36 34 34 36 36 35 32 33 33 32 26 26 27 23 23 23 25 26 25 24 23 21 22 23 23 30 29 28 28 27
28 30 25 26 31 31 33 35 35 38 36 36 36 35 34 35 35 34 34 34 32 27 25 23 21 22 22 19 22 20 26 27 25 20 26 25 20 21 20 22 27 28 27 26
27 28 22 21 30 30 32 33 36 36 36 35 35 35 36 34 34 33 31 28 27 25 23 21 20 21 21 19 19 16 21 25 25 24 26 28 28 23 21 22 20 22 24 25
27 27 26 22 31 32 33 35 35 34 33 34 33 33 33 33 33 31 29 26 25 23 21 19 19 18 18 16 16 16 14 22 23 25 27 27 27 26 25 26 25 32 31 32

GFSCGP_sfc_temp_081.txt.gz
Temp
48 46 42 46 47 44 43 40 39 43 48 45 45 44 49 53 50 50 51 51 52 53 61 57 58 57 56 57 58 61 62 65 65 64 63 62 63 64 65 66 66 65 64 63
45 41 50 50 48 47 43 41 39 44 46 46 42 46 49 50 52 53 53 53 52 52 54 56 55 54 54 59 59 62 63 65 65 67 67 67 65 63 65 66 66 66 65 64
43 47 50 50 44 45 40 40 39 43 42 42 40 41 43 49 48 52 52 51 52 53 54 54 54 54 53 52 55 60 62 65 66 67 64 56 56 55 57 60 64 65 65 64
44 49 48 45 44 46 39 47 46 43 39 35 38 32 39 45 48 50 52 50 51 51 51 53 54 54 53 54 52 55 58 61 64 65 64 63 63 62 62 63 61 62 64 64
45 45 45 43 46 48 44 46 44 41 36 33 33 33 39 40 45 50 50 50 50 51 51 52 53 53 52 51 50 50 53 57 59 62 64 62 62 64 58 56 56 55 59 63
45 46 47 48 45 47 47 44 41 35 35 29 33 35 36 41 44 46 48 49 50 50 50 51 51 52 51 49 48 48 50 53 56 59 59 60 61 57 52 51 53 52 55 59
40 41 44 47 44 45 43 41 30 28 25 27 30 31 38 45 46 47 48 48 47 48 49 50 50 50 50 49 49 49 50 51 52 54 55 55 57 55 54 53 53 49 50 51
35 34 43 47 46 42 41 41 31 22 22 28 32 31 41 45 47 47 48 46 47 48 48 49 49 48 48 49 49 48 49 49 49 50 52 52 53 52 53 51 51 52 53 54
35 37 42 43 45 48 41 37 41 30 16 23 31 37 47 45 47 47 48 48 48 49 50 50 50 48 47 47 48 47 48 48 49 48 48 49 49 50 51 50 50 51 49 49
42 35 38 41 45 43 42 45 35 30 21 18 29 30 38 43 45 46 47 47 49 49 51 50 50 50 49 47 46 47 47 47 47 48 47 47 47 47 48 48 47 47 47 47
42 40 34 39 38 38 39 37 37 38 32 23 20 31 42 45 46 44 46 48 49 50 49 49 49 49 49 49 48 48 48 47 47 47 46 46 46 46 46 46 46 46 46 45
43 39 30 35 38 40 39 40 39 32 27 27 29 32 44 45 46 48 48 48 46 47 48 48 48 48 48 48 48 47 46 46 46 46 46 46 46 46 45 45 45 45 45 44
44 36 25 31 35 37 37 38 40 38 33 26 26 32 44 43 43 44 43 43 45 45 46 46 45 44 44 44 44 44 44 44 44 44 44 44 44 44 44 44 44 44 43 43
46 37 35 32 33 37 34 35 37 39 30 32 32 36 41 42 42 44 43 43 43 42 43 43 43 43 44 43 41 41 43 42 42 42 42 42 43 43 43 43 43 42 42 41
43 33 35 36 38 38 35 35 36 35 35 34 35 34 41 43 44 41 40 42 43 43 43 43 42 42 42 43 42 42 42 41 40 40 40 41 40 40 40 39 38 38 37 38
40 32 34 31 34 35 32 35 35 35 35 35 35 37 47 44 43 41 41 42 42 42 43 43 42 42 40 40 40 40 39 38 36 36 35 36 35 34 35 35 35 35 36 35
34 30 27 26 29 31 27 31 33 33 35 37 34 41 41 38 40 40 40 40 40 41 42 42 41 40 39 38 38 37 36 35 33 32 33 32 33 33 34 33 33 34 34 34
30 30 27 21 19 19 31 33 33 35 39 42 40 37 38 38 39 40 40 40 41 41 40 40 40 39 38 36 36 34 32 32 32 32 31 31 31 31 32 32 31 32 31 31
36 31 18 19 6 23 30 32 31 31 33 38 37 36 37 37 33 35 40 40 38 38 39 38 38 37 36 34 33 31 31 31 32 32 31 31 30 29 29 30 30 29 27 27
33 35 27 6 11 11 25 31 36 37 24 35 37 35 36 35 30 31 40 37 38 38 38 37 35 34 33 32 30 29 30 28 29 30 30 30 29 28 28 30 30 31 28 31
27 26 23 14 10 16 28 32 35 21 27 27 35 36 35 32 35 38 36 36 37 37 36 35 32 32 32 31 29 28 28 27 28 27 27 27 27 26 27 28 30 31 31 31
26 25 22 20 19 16 32 32 29 33 30 33 33 34 33 34 35 35 34 36 36 35 33 33 32 31 31 29 25 25 25 27 25 24 24 24 23 24 26 23 29 31 30 30
21 26 22 25 26 34 32 33 35 35 34 32 34 33 33 34 34 34 34 34 33 34 34 32 26 27 28 23 21 22 24 24 27 26 23 24 28 23 21 21 28 29 29 28
26 29 24 25 31 30 33 35 35 36 36 36 34 33 33 33 34 34 34 34 32 27 25 23 21 23 23 19 20 19 20 20 23 25 26 26 28 29 28 22 22 25 27 27
27 29 23 23 29 31 32 34 36 35 35 34 34 33 34 34 34 34 32 30 28 25 23 20 19 21 22 21 18 14 18 14 18 24 26 28 29 28 28 27 21 18 20 26
27 27 28 23 32 33 33 34 35 32 33 33 32 31 32 32 32 31 29 26 25 24 20 19 21 21 21 16 14 12 9 9 14 20 24 28 29 28 26 25 26 32 33 33

GFSCGP_sfc_temp_084.txt.gz
Temp
47 46 42 46 46 44 42 42 40 42 45 43 42 43 48 51 49 50 51 50 51 52 56 55 56 55 53 54 56 59 61 63 63 63 63 63 63 65 65 65 63 62 62 61
45 41 48 49 47 46 41 38 39 42 45 43 41 44 48 49 51 51 52 50 50 50 52 54 53 51 52 53 54 57 60 62 63 65 65 65 64 64 65 66 65 63 62 61
43 46 49 48 43 44 38 39 39 40 40 41 39 41 42 46 45 49 50 49 48 49 49 51 51 50 50 49 50 54 57 60 63 65 62 56 57 56 60 63 64 64 64 63
44 46 47 44 41 44 38 46 44 42 38 35 37 32 39 43 46 47 46 46 47 48 49 49 50 50 49 48 49 51 53 56 59 61 61 61 62 61 62 63 65 65 64 64
43 45 43 42 45 47 42 46 43 39 35 33 31 32 39 39 42 47 47 46 46 47 47 48 48 50 48 48 47 47 49 52 56 59 62 60 61 61 59 57 58 62 62 63
42 45 46 46 44 45 45 42 39 34 33 28 32 33 36 39 42 43 45 45 46 46 47 48 48 48 47 47 46 47 49 51 53 56 58 58 59 57 54 52 54 56 59 61
38 40 42 46 43 44 42 40 30 27 25 27 28 30 37 42 43 43 45 44 44 45 47 47 47 47 47 46 46 47 47 49 50 52 54 55 56 55 54 53 52 51 53 53
35 34 42 45 45 41 40 40 31 22 21 27 31 30 38 41 44 45 46 44 44 47 46 47 47 46 46 46 46 46 46 47 47 48 50 51 52 53 53 52 51 52 52 54
36 36 41 42 44 48 40 36 40 29 14 22 30 35 42 42 43 44 45 45 46 47 47 47 47 46 46 46 46 45 45 46 46 46 46 47 47 48 49 50 49 49 49 49
42 35 38 40 44 42 41 43 35 29 19 18 28 30 35 38 41 41 43 45 47 47 47 47 47 46 46 45 45 45 44 44 44 45 45 45 45 46 46 46 46 46 47 47
42 40 34 39 38 37 38 37 36 37 31 22 19 30 39 43 42 42 44 46 45 46 45 45 45 45 44 45 45 45 45 44 45 44 43 44 44 44 44 44 44 44 45 45
43 38 30 34 37 39 38 39 39 32 27 25 28 31 42 45 43 45 45 45 43 43 43 43 43 43 43 43 44 43 43 43 43 43 43 43 44 43 43 44 44 44 44 44
43 34 23 31 34 35 35 37 39 36 33 26 26 31 41 41 43 43 43 41 42 42 42 42 42 42 41 42 42 41 42 42 42 42 42 43 43 42 42 42 42 42 42 41
47 36 34 33 34 36 33 35 37 39 30 33 31 34 38 38 40 41 40 41 41 41 42 41 41 40 40 41 39 39 39 39 38 38 38 38 39 39 39 39 39 39 39 38
43 34 34 33 35 35 34 35 36 37 41 37 38 37 42 43 42 40 41 41 41 41 41 41 40 40 39 39 38 38 38 37 36 36 36 36 36 36 35 35 34 34 35 35
40 32 33 30 34 34 32 35 34 33 34 34 34 35 44 45 44 41 41 41 41 41 40 40 40 40 38 38 38 38 37 36 34 34 33 33 33 33 32 33 33 33 33 33
35 33 31 28 30 32 29 33 33 33 34 36 34 40 41 40 41 41 41 41 41 40 40 40 39 38 37 36 36 35 34 33 31 31 31 31 31 31 32 32 32 32 32 32
32 30 29 21 26 22 31 33 34 35 37 40 39 38 40 39 40 41 41 40 40 39 39 39 38 38 37 35 34 32 31 31 31 30 29 29 30 29 29 29 29 30 30 30
38 31 22 23 21 25 29 32 32 33 35 39 38 36 36 37 36 35 39 38 38 38 38 38 37 36 35 34 32 31 32 31 31 31 30 30 29 28 28 27 31 31 31 27
34 34 28 15 17 14 27 29 34 37 26 34 37 35 33 33 30 33 37 38 36 36 37 36 35 34 33 33 31 30 30 27 29 29 29 28 27 25 25 27 29 29 26 30
27 27 25 12 14 17 28 31 33 23 26 26 34 34 33 31 34 36 37 35 35 36 35 34 32 33 33 32 29 28 27 26 27 25 25 24 25 23 23 24 24 26 25 28
28 26 23 18 16 19 32 30 30 33 30 32 33 34 35 35 34 33 34 35 35 35 35 34 32 32 32 29 24 24 24 26 23 25 27 27 22 27 25 19 22 26 30 29
25 30 26 28 27 33 32 33 34 34 32 33 33 34 35 34 32 32 33 33 34 34 34 33 27 26 27 22 20 22 23 22 21 19 23 27 28 29 30 28 26 24 23 28
26 29 27 29 30 32 33 34 35 35 35 36 36 34 33 30 32 33 33 33 32 27 26 23 20 21 20 18 20 18 19 18 10 14 19 25 27 29 30 30 28 25 19 19
26 28 22 22 28 31 31 33 35 35 35 35 34 34 32 31 33 32 30 26 25 24 22 19 19 20 21 19 16 14 15 10 12 13 18 21 25 29 29 29 28 27 23 25
27 26 26 23 32 33 33 34 35 34 34 34 33 31 30 30 30 28 25 23 22 22 20 20 21 21 20 14 12 10 6 4 5 11 16 18 20 23 27 27 26 31 33 33

GFSCGP_sfc_temp_087.txt.gz
Temp
48 46 41 46 46 46 44 42 41 43 47 46 44 45 50 52 51 51 53 53 53 54 57 57 57 57 56 57 60 62 63 65 66 65 64 64 64 65 64 64 64 64 65 64
46 41 48 48 47 46 43 41 39 43 45 45 43 46 50 50 51 51 51 51 52 52 53 53 54 55 55 56 56 59 62 64 65 67 68 68 67 66 67 66 65 64 64 64
43 46 48 48 44 45 39 42 40 41 41 42 40 43 45 48 48 49 47 49 50 49 51 52 52 51 51 52 53 55 59 62 64 66 65 61 62 60 64 64 65 63 63 63
44 44 45 43 42 44 39 45 44 42 39 36 39 35 42 43 47 46 46 46 47 47 49 50 50 51 50 50 50 53 54 57 60 63 63 63 65 64 66 66 66 65 63 62
43 43 43 42 45 47 43 44 43 40 36 35 35 36 41 41 44 46 46 46 47 47 48 48 49 49 49 49 49 50 53 54 56 60 63 62 63 64 63 62 62 64 63 64
43 45 46 46 43 44 44 42 39 35 34 30 32 35 37 41 44 44 45 46 47 48 48 48 49 49 49 49 50 50 52 51 54 57 59 60 60 60 59 58 58 59 62 62
37 39 42 45 42 44 42 40 30 29 26 28 30 31 39 42 45 46 46 46 47 47 47 48 48 48 48 47 47 50 50 49 51 53 56 57 58 58 58 58 57 55 55 55
34 33 41 44 44 41 39 41 32 24 23 28 31 30 39 40 43 46 46 46 46 46 47 46 46 46 46 46 47 48 48 48 49 49 50 52 53 54 55 54 54 55 55 56
36 36 40 42 43 47 40 37 40 28 14 23 31 35 41 41 42 44 46 46 45 45 45 45 46 46 45 45 45 46 47 47 47 47 48 48 49 50 50 50 51 52 52 52
43 35 38 40 44 42 41 43 35 30 19 19 28 31 35 37 40 43 44 44 45 45 45 45 45 45 45 44 44 45 45 45 45 46 47 47 47 48 48 49 49 49 49 50
43 40 34 39 39 38 39 38 36 37 31 22 19 31 39 43 43 41 43 44 44 43 43 44 44 44 44 44 44 44 44 44 44 44 44 45 46 46 47 47 47 47 47 47
43 38 31 35 39 39 38 39 39 32 26 25 27 32 41 44 43 44 44 44 43 43 43 42 43 43 43 43 43 43 43 43 42 43 43 43 43 43 43 43 44 44 44 44
43 34 22 31 35 35 34 36 38 36 33 25 27 31 40 42 41 43 43 42 42 42 42 43 42 42 42 42 42 42 41 41 41 41 42 42 42 42 41 41 41 41 41 41
46 36 35 34 34 36 34 36 37 39 31 31 33 33 37 38 40 42 42 42 42 42 42 42 41 41 41 41 41 40 40 39 38 39 39 38 38 38 39 39 39 38 38 38
43 32 33 31 33 35 35 35 35 37 43 37 41 37 42 41 41 42 42 41 41 41 42 42 41 40 40 40 39 39 39 38 37 37 37 36 36 36 36 35 35 35 35 36
39 30 32 30 34 33 32 35 38 42 38 34 34 37 44 45 42 40 41 40 40 41 42 42 41 40 39 38 38 37 37 36 35 35 34 34 33 33 33 33 33 33 34 34
35 33 29 28 31 31 30 34 34 36 35 41 34 39 40 40 42 42 41 41 41 41 41 40 40 39 38 37 37 36 35 34 33 33 32 31 31 31 32 31 31 32 32 32
32 31 31 25 30 24 34 31 34 36 37 40 39 39 43 43 44 43 42 40 39 40 40 40 39 38 37 36 36 34 34 33 33 31 30 29 30 29 29 29 29 31 31 30
37 32 24 24 19 26 30 32 32 34 35 39 38 39 39 38 40 38 41 41 41 41 40 39 38 37 36 35 34 33 33 32 32 31 31 30 29 27 28 27 28 29 30 31
35 36 31 21 20 17 29 29 33 36 28 36 40 38 35 37 32 35 38 39 39 39 38 38 37 36 35 34 33 31 31 28 29 29 28 27 27 25 25 26 26 27 27 29
28 28 28 22 22 23 30 32 35 25 29 27 35 36 34 34 36 36 36 37 37 37 37 37 35 35 34 32 30 29 27 27 27 25 26 27 28 25 26 26 27 26 25 28
26 26 24 19 21 20 32 30 32 34 31 32 32 33 34 34 35 36 37 37 36 36 36 35 34 33 31 28 25 24 24 26 23 21 21 22 26 29 29 30 29 29 27 27
27 30 24 27 28 32 31 32 35 35 33 33 33 34 34 33 33 34 34 32 34 32 34 31 27 26 27 21 21 22 24 21 20 15 15 17 22 25 28 30 30 31 30 28
27 30 29 31 28 30 32 32 34 35 35 35 34 34 34 33 33 33 33 33 32 26 24 21 20 20 20 19 20 19 19 17 8 11 15 18 19 22 24 29 29 29 29 28
27 29 23 23 29 31 33 34 34 35 35 34 35 35 34 34 33 33 28 26 24 23 21 19 19 19 20 18 17 15 15 10 10 11 15 17 19 19 21 25 29 29 29 29
26 26 28 25 31 33 35 35 35 34 34 34 33 32 31 32 31 27 25 24 22 20 19 17 16 16 16 14 14 12 5 4 3 10 14 15 15 17 20 24 27 31 31 34

GFSCGP_sfc_temp_090.txt.gz
Temp
57 59 55 60 60 59 59 55 56 55 56 56 57 59 65 68 65 68 71 70 69 70 69 69 69 69 70 72 73 74 74 75 72 68 66 65 64 66 67 67 68 69 72 72
57 54 59 58 57 57 54 56 54 53 53 55 53 57 63 64 62 62 63 66 64 66 66 65 66 66 65 69 70 71 73 74 73 70 68 68 68 67 68 67 66 66 70 71
55 55 55 55 53 55 53 56 51 53 52 53 52 56 59 59 59 58 58 59 60 62 63 64 64 64 65 63 64 67 70 72 74 74 72 68 65 64 66 66 65 65 65 66
56 52 53 53 52 56 49 56 54 50 54 51 51 52 56 56 57 57 57 60 61 61 62 62 63 62 62 61 62 63 66 68 71 73 71 67 66 66 68 67 66 65 64 64
53 49 50 51 54 56 52 54 52 51 51 50 51 51 58 54 54 55 57 57 59 59 61 60 60 60 61 61 62 64 64 65 66 69 70 67 66 68 69 69 66 66 65 64
51 54 55 55 50 54 52 52 50 49 50 42 50 50 55 55 56 54 56 57 58 59 59 60 59 61 61 61 61 63 62 62 65 66 67 67 67 67 66 67 66 66 66 65
47 49 52 53 49 51 52 54 41 40 39 40 41 42 57 54 56 59 57 57 58 59 60 59 59 58 58 58 59 59 61 59 61 62 59 60 59 60 60 60 60 59 60 59
44 40 47 52 53 49 50 54 44 32 33 40 37 39 52 53 56 58 59 58 57 57 57 57 56 57 56 56 58 59 57 58 59 60 60 61 61 62 62 62 61 63 63 63
44 43 48 49 50 55 48 45 50 36 26 38 45 48 50 50 51 54 55 56 56 56 56 55 56 56 56 55 55 57 57 56 57 58 59 59 59 59 59 59 60 60 60 59
50 41 44 46 52 51 51 54 44 45 31 32 39 42 52 45 49 53 53 55 54 54 54 55 55 55 55 55 55 55 55 54 55 56 56 56 56 57 57 57 56 56 57 57
51 47 40 45 45 48 46 46 46 50 44 37 35 45 58 52 54 53 55 56 55 54 54 54 53 54 54 54 54 54 54 53 53 53 53 54 53 53 54 53 53 52 53 53
49 44 38 43 45 46 47 49 51 45 35 39 39 47 48 57 57 56 54 53 53 53 53 54 53 54 53 53 53 52 52 51 50 51 51 51 51 51 50 50 49 48 48 49
48 41 31 36 43 42 42 45 51 46 41 33 37 47 47 54 52 55 53 51 51 52 53 53 53 53 53 52 51 51 50 49 49 50 50 50 49 48 48 47 47 47 47 47
50 42 44 40 45 47 40 42 44 48 39 42 42 50 44 49 51 52 51 52 53 53 52 52 51 51 50 50 51 51 49 48 48 48 48 46 45 45 46 46 45 45 45 45
47 38 43 48 44 46 45 43 43 45 50 44 50 47 48 50 52 53 54 52 50 49 49 51 50 50 49 49 49 49 49 47 46 47 46 44 43 43 42 41 40 41 41 42
43 35 39 33 38 41 40 45 45 48 49 51 50 48 56 56 56 51 50 49 49 49 50 49 48 47 46 46 47 45 45 44 43 43 41 41 39 38 38 38 37 38 38 39
38 35 33 34 34 37 34 39 43 47 52 51 45 51 51 50 48 49 49 49 49 49 49 48 48 47 46 46 45 45 44 43 41 39 37 36 36 36 36 36 36 36 37 37
34 33 34 29 32 27 40 40 45 47 47 50 50 47 50 50 52 52 52 50 48 48 47 47 47 46 45 44 43 42 40 40 39 37 36 35 35 34 34 34 34 35 36 35
39 35 28 29 30 35 38 37 39 40 43 46 48 46 47 47 48 45 49 51 49 48 48 47 47 47 44 43 41 40 39 38 38 36 35 34 32 30 31 30 32 32 32 32
37 39 34 27 28 27 39 39 42 46 36 45 48 44 42 45 41 48 45 44 45 45 45 44 44 43 42 40 39 37 36 36 35 33 32 33 32 30 29 30 30 30 31 31
30 31 30 30 29 32 38 38 41 33 37 36 44 46 42 45 46 45 44 43 44 44 43 43 43 41 39 36 35 35 34 34 32 30 30 30 30 30 31 31 32 31 31 31
32 30 29 28 28 27 40 37 38 43 37 38 41 42 43 40 40 42 44 42 42 42 41 40 39 36 35 34 33 33 33 31 29 27 26 26 26 28 30 30 31 32 32 32
31 38 33 35 35 38 41 39 42 42 39 38 40 41 42 40 41 43 41 41 40 41 38 35 35 33 33 30 30 31 31 28 26 22 21 23 24 25 27 28 29 30 32 32
32 36 35 35 37 38 39 39 41 42 42 41 42 42 43 41 41 38 39 37 36 32 31 30 30 29 29 28 27 27 26 23 18 19 21 23 23 25 26 28 30 30 30 30
35 34 32 32 33 36 37 39 41 39 39 39 40 40 41 40 37 37 34 33 32 30 28 28 28 27 26 26 26 25 22 18 17 18 20 22 24 23 24 26 27 28 30 31
33 33 34 36 38 41 40 41 39 38 39 39 39 36 36 37 36 33 31 30 29 27 25 24 23 22 22 21 21 20 15 12 12 16 20 21 19 22 23 24 26 31 32 33

GFSCGP_sfc_temp_093.txt.gz
Temp
65 60 56 62 66 68 67 61 59 63 60 60 61 63 69 73 70 71 74 76 75 75 77 74 75 75 76 78 79 79 79 79 76 69 67 67 66 67 68 69 70 70 69 73
58 55 64 67 65 63 63 60 60 57 58 58 60 60 68 70 68 69 69 70 71 72 71 69 70 71 71 74 75 77 78 79 78 70 69 69 68 67 68 69 68 68 67 68
57 60 61 59 58 58 61 60 59 59 56 58 57 58 64 64 65 64 64 66 66 68 68 67 67 68 69 68 71 73 75 77 78 75 69 67 65 66 66 66 65 66 66 66
60 56 56 57 57 61 53 61 60 54 56 53 57 53 61 64 62 61 62 66 67 66 66 66 67 66 65 65 66 68 72 74 76 77 74 67 66 65 68 67 67 66 65 66
54 52 53 54 58 61 56 60 58 57 56 53 54 51 62 60 58 60 61 62 64 65 65 64 64 63 64 65 66 67 68 70 72 73 73 71 64 66 68 66 64 64 64 64
53 56 59 59 57 60 57 56 55 56 54 44 55 53 58 57 61 60 60 62 61 62 63 63 64 64 63 64 65 66 66 67 68 70 71 71 67 65 64 64 64 65 64 64
51 52 54 57 51 56 58 54 43 41 40 41 46 46 57 58 62 62 59 60 61 63 64 63 62 61 61 61 62 63 64 63 64 62 63 63 63 63 62 61 62 61 63 63
46 42 50 56 57 51 52 56 45 33 36 42 39 40 54 59 60 64 62 61 61 61 61 61 61 60 60 60 62 62 61 61 63 63 63 64 65 65 64 63 64 64 63 63
48 46 51 54 56 59 51 48 56 40 31 40 47 53 54 53 56 59 59 58 59 60 60 59 60 60 59 58 59 60 60 59 61 61 61 61 61 61 61 61 61 60 60 59
55 40 46 48 54 54 54 59 45 47 32 33 43 47 53 47 51 54 55 57 58 59 58 59 59 58 58 58 59 59 59 57 58 58 58 58 58 58 58 57 55 55 57 56
57 51 40 47 47 49 48 48 50 53 47 38 38 47 61 54 55 55 57 59 58 57 57 58 58 57 57 58 58 57 57 56 55 56 56 55 54 55 55 54 53 52 53 52
51 48 38 44 47 49 54 54 52 44 37 44 40 47 54 61 60 60 59 59 59 58 57 57 56 57 57 57 57 56 55 53 54 54 54 53 53 53 52 51 51 50 49 50
50 41 32 36 45 46 46 52 55 56 46 35 38 48 52 58 60 61 59 58 56 56 57 56 56 55 55 54 54 53 53 51 52 53 52 51 50 50 50 49 49 49 49 49
52 44 43 40 46 50 42 47 49 51 41 43 45 52 48 54 56 58 58 56 55 55 55 56 55 55 54 54 54 53 51 51 51 51 50 47 46 47 47 47 46 45 46 46
50 38 46 51 54 52 49 47 48 47 50 45 51 51 57 54 56 58 59 56 54 54 54 54 53 52 53 52 52 53 51 49 50 49 48 46 45 45 43 42 41 41 40 41
46 36 45 35 46 43 41 46 47 47 49 51 53 53 64 61 60 58 56 55 53 53 54 54 53 52 51 51 50 49 49 46 47 45 42 41 40 38 38 38 37 38 38 39
41 37 34 34 37 38 33 39 47 48 52 53 47 55 58 55 56 56 54 54 53 53 54 52 51 50 49 49 49 48 47 45 42 39 37 36 36 36 36 36 36 36 37 37
35 35 35 31 33 27 43 49 53 50 52 55 56 58 56 56 58 58 59 55 54 54 53 51 51 50 48 47 47 45 43 40 39 37 36 35 35 34 34 34 34 35 35 34
44 39 32 31 30 39 44 40 43 44 47 55 54 57 55 57 56 54 58 57 55 53 51 50 50 49 47 46 44 41 38 39 38 37 36 35 34 32 32 30 32 33 32 32
36 41 38 31 29 27 42 45 48 50 36 54 53 52 48 49 42 49 52 51 49 49 48 47 46 45 43 42 40 38 36 37 35 34 33 33 33 30 30 32 31 33 32 32
31 32 31 31 31 34 39 40 45 34 38 39 48 51 46 46 51 54 48 47 48 46 45 45 44 41 41 37 36 35 35 33 32 31 31 30 30 28 30 31 32 32 32 32
32 31 31 31 30 29 42 40 39 43 40 40 44 48 46 45 44 45 47 44 43 42 42 41 38 36 36 35 34 33 33 31 29 28 27 27 26 28 29 28 29 30 31 32
32 39 34 36 37 41 44 42 44 44 42 41 43 44 45 42 43 44 43 43 42 42 38 38 37 34 34 31 31 31 29 28 26 22 21 23 25 26 27 27 27 29 30 30
36 39 37 37 40 41 41 42 42 44 43 43 43 43 44 42 43 40 38 37 36 34 33 32 32 30 28 28 28 28 26 24 18 20 22 23 24 25 26 28 29 28 29 29
38 38 34 34 35 39 40 41 43 41 40 40 41 42 43 41 39 38 36 34 33 32 30 31 30 29 27 27 26 24 21 18 19 19 21 23 25 25 24 26 27 27 28 29
36 38 37 38 41 43 42 42 41 40 40 40 39 38 38 40 38 37 34 33 31 29 28 27 26 25 24 22 20 19 15 14 13 17 21 22 20 22 23 23 24 29 30 32

GFSCGP_sfc_temp_096.txt.gz
Temp
58 52 49 53 56 58 57 53 50 52 56 52 51 52 58 60 59 58 60 62 63 64 64 64 65 63 63 67 69 70 70 70 68 68 65 64 64 65 65 66 66 67 67 68
52 47 57 61 60 57 52 51 49 50 54 49 52 52 57 60 59 60 58 60 63 61 60 62 59 58 61 62 64 66 70 70 70 68 67 66 65 65 66 66 66 66 65 66
49 54 60 57 52 54 51 51 48 49 49 49 45 46 52 55 57 57 54 56 57 56 60 58 58 56 59 57 58 63 66 68 69 67 67 64 63 63 63 64 63 64 64 64
52 55 55 51 52 55 48 54 53 49 47 40 47 36 46 49 51 54 56 54 55 55 56 58 58 54 53 55 56 58 61 65 67 66 63 63 63 62 63 64 64 63 63 63
47 48 49 48 52 56 49 54 51 50 46 41 41 38 44 51 49 51 53 55 55 56 56 55 54 56 55 55 55 56 59 62 64 65 64 64 62 62 63 63 63 63 63 63
48 51 52 52 53 55 54 51 50 48 45 33 42 41 41 44 50 51 53 53 54 54 53 54 55 55 54 53 54 56 57 58 60 62 62 61 63 63 61 60 60 60 60 60
46 46 49 52 47 49 49 46 32 31 28 29 36 38 45 48 51 53 51 51 52 53 52 52 52 51 51 51 52 54 55 55 56 56 57 57 61 61 59 58 58 58 58 57
40 36 46 51 50 45 45 47 33 25 26 31 34 33 43 47 52 55 54 52 53 52 52 51 51 51 51 52 51 52 52 52 53 54 55 58 58 56 53 53 52 52 51 51
42 39 47 50 50 51 44 41 46 34 23 27 34 41 46 47 49 52 51 51 50 51 51 51 51 51 51 50 50 51 50 50 51 51 51 50 51 50 50 49 49 49 49 52
48 35 43 44 48 48 47 52 38 38 22 21 32 33 40 40 45 49 49 49 50 50 50 50 51 50 50 50 50 50 50 48 49 49 49 49 48 48 48 47 46 46 46 47
49 43 36 43 41 43 43 43 45 45 38 26 24 32 46 47 50 50 50 52 51 49 49 49 49 50 50 50 49 48 48 47 47 47 46 46 46 46 46 45 44 44 44 44
47 42 31 38 42 44 44 47 47 37 32 33 31 34 47 49 52 52 51 53 50 50 50 49 48 49 48 48 48 46 46 46 46 47 46 46 45 44 43 43 43 43 43 43
47 38 27 33 40 41 42 46 48 48 38 30 28 35 47 48 50 53 52 52 51 50 49 48 48 48 47 46 46 45 44 44 45 45 44 43 42 42 42 41 42 41 41 41
50 40 38 36 39 43 37 42 45 45 31 33 35 42 43 47 49 51 53 52 51 51 50 49 47 47 47 47 45 44 44 44 44 43 42 40 40 40 39 39 38 38 38 38
47 34 40 44 48 46 43 43 44 42 46 40 46 45 47 48 51 54 55 51 50 50 50 50 48 47 45 45 45 44 43 43 43 42 40 38 38 37 37 35 35 34 33 35
44 33 39 32 43 40 37 42 45 46 47 47 48 45 54 53 54 52 53 51 49 50 51 50 48 46 45 45 43 44 41 41 40 38 36 36 35 34 33 33 33 32 32 32
38 34 32 30 34 35 30 37 41 45 48 48 44 51 50 48 51 52 51 51 50 50 50 49 47 46 45 44 45 41 40 39 36 33 33 32 33 32 32 31 31 31 31 31
34 32 32 26 30 22 40 47 49 46 48 50 51 52 51 50 53 54 56 53 51 51 50 48 47 45 43 42 41 40 37 35 34 33 31 31 31 29 30 29 28 29 29 29
41 34 31 27 23 31 38 37 40 40 43 51 50 52 51 50 48 47 55 54 53 51 50 47 46 44 42 41 39 35 34 34 33 32 31 31 29 26 27 24 26 27 26 26
37 41 36 30 28 25 35 45 46 47 36 48 50 51 47 46 42 47 49 52 50 50 47 44 43 42 40 37 36 34 33 32 31 31 31 30 28 24 23 25 24 25 23 29
32 32 30 31 29 29 35 36 43 32 36 35 41 49 46 47 52 49 46 45 47 46 43 43 42 39 37 35 34 33 32 31 30 28 27 26 26 22 22 23 23 21 22 26
31 30 30 31 29 27 37 35 38 39 35 35 38 42 43 40 41 43 44 42 41 40 40 39 36 34 33 33 33 31 30 28 25 24 23 20 17 21 22 15 16 17 18 18
29 34 32 34 32 37 38 35 38 40 39 35 36 38 41 39 38 40 39 38 38 39 37 37 35 32 32 31 31 29 26 25 21 17 13 13 14 16 16 13 14 16 15 16
33 36 33 34 34 34 37 37 37 39 37 37 36 36 39 37 37 36 36 34 33 34 33 32 32 29 27 27 27 25 22 19 13 10 12 14 13 13 14 18 19 13 13 17
32 33 29 29 33 35 37 38 41 39 35 35 35 36 38 36 34 35 34 33 33 32 31 33 31 29 26 25 21 19 17 15 14 11 14 13 14 11 13 16 15 17 17 19
30 32 31 29 38 40 39 39 39 36 36 35 35 35 34 34 35 34 32 32 31 30 29 28 26 25 22 19 16 12 10 11 7 11 13 12 11 11 14 15 17 25 28 30

GFSCGP_sfc_temp_099.txt.gz
Temp
54 48 45 48 50 51 51 47 46 47 52 50 49 49 53 56 55 57 55 56 57 59 59 60 63 62 63 64 65 66 66 66 66 63 64 64 64 64 64 65 66 66 67 67
49 45 53 55 55 54 49 46 42 46 50 49 48 50 52 54 55 57 57 56 58 55 56 57 58 57 59 60 60 63 65 66 66 65 64 65 65 64 65 66 65 65 65 65
46 50 56 54 51 50 50 46 43 46 47 47 45 44 49 54 54 54 54 56 56 55 55 55 56 53 54 55 55 59 63 64 66 66 67 63 63 63 63 64 64 64 64 64
48 54 53 51 49 52 46 53 49 46 45 39 45 35 43 48 50 51 53 52 54 55 55 54 54 50 50 53 53 55 58 62 63 65 66 64 62 61 63 64 64 64 64 63
45 48 49 47 51 54 48 51 49 46 44 39 38 36 41 45 46 50 51 52 52 53 53 52 51 53 50 52 52 52 55 58 60 62 66 65 62 62 62 62 63 63 63 63
47 51 52 52 50 54 53 49 47 44 41 32 37 37 38 42 48 48 48 50 50 49 50 50 51 52 50 50 51 50 52 54 57 59 63 64 63 61 60 59 59 58 59 58
43 43 47 51 48 49 49 43 31 30 29 29 31 33 42 47 51 51 50 48 48 48 47 48 48 47 48 49 49 52 52 52 54 56 56 57 57 58 57 56 55 54 53 52
36 35 45 49 48 44 42 43 30 23 24 29 33 32 42 47 51 51 52 49 48 47 48 47 47 47 47 48 48 49 49 49 51 52 52 54 56 54 52 51 49 47 47 47
38 38 45 47 48 52 42 39 45 33 18 26 32 37 46 45 46 47 47 48 46 47 46 46 47 46 46 46 47 47 48 48 49 49 50 50 49 48 46 46 46 45 45 48
46 35 41 44 47 47 45 50 38 35 24 21 29 30 37 40 44 45 45 46 45 46 46 46 46 46 46 46 46 47 47 46 46 47 48 47 47 46 45 45 43 43 43 43
45 41 36 42 41 41 42 41 42 42 34 24 22 32 43 46 48 46 47 48 47 46 47 46 46 46 46 45 44 45 45 45 45 46 45 45 44 44 43 42 41 41 41 41
45 39 31 37 41 43 43 44 43 35 33 31 30 34 46 47 47 49 47 49 47 48 46 45 45 45 44 44 44 43 44 45 44 44 44 43 43 42 41 40 39 39 39 39
46 36 26 33 40 41 41 43 46 43 34 29 26 34 46 45 45 48 47 46 48 47 44 45 45 45 44 44 44 44 44 43 43 43 42 41 39 39 38 38 38 38 37 37
50 40 37 34 37 40 36 40 42 43 30 32 33 42 44 44 45 46 47 48 48 47 47 46 45 45 45 45 43 42 42 42 42 41 39 38 37 37 36 36 36 35 36 35
47 33 37 39 43 42 41 42 41 41 47 39 46 43 46 47 47 49 51 49 48 47 47 47 46 46 45 43 42 42 42 42 40 39 37 36 36 35 34 33 34 33 33 33
43 32 37 32 41 42 38 41 44 46 46 45 47 45 52 51 50 48 50 49 48 49 48 48 47 46 44 44 42 42 40 40 39 36 34 34 33 32 32 32 32 32 32 31
39 34 30 32 32 34 31 37 41 44 48 48 42 50 48 48 50 50 50 50 50 50 50 48 47 46 45 43 43 41 39 37 34 33 32 32 32 32 31 31 31 31 31 30
31 33 28 25 28 23 39 46 48 45 48 50 51 50 48 49 49 49 53 51 51 51 50 49 48 46 45 43 41 39 37 34 33 32 31 31 31 31 31 30 29 29 29 29
39 33 27 26 16 30 38 38 39 39 44 47 49 52 48 47 45 46 53 55 53 51 51 50 49 46 44 41 39 36 34 34 33 32 31 31 30 28 27 24 25 27 26 24
36 39 32 16 17 19 37 41 44 47 37 51 49 50 44 44 43 53 50 52 52 51 50 47 45 43 41 38 36 35 33 33 32 32 31 30 29 26 23 25 24 24 22 26
31 30 32 29 22 27 34 37 42 32 38 37 42 48 46 45 54 48 47 46 47 47 44 44 43 41 40 36 36 34 33 32 31 29 28 27 27 24 24 22 23 20 17 20
33 32 31 31 29 27 37 36 40 41 35 36 37 41 41 41 40 40 42 41 41 40 40 41 39 37 36 36 36 33 33 30 28 27 26 24 20 22 22 14 13 12 11 13
31 37 32 36 34 36 35 34 37 39 38 36 36 39 39 39 37 37 37 37 38 39 37 38 36 33 33 32 35 33 29 27 25 24 21 17 16 17 16 10 11 13 10 11
32 36 32 33 33 36 37 36 36 38 37 37 36 37 38 38 37 35 34 34 34 33 34 33 33 32 30 30 30 31 27 25 23 19 20 19 15 12 11 16 17 9 8 9
32 34 32 31 35 36 38 39 40 37 36 36 36 35 38 36 34 34 32 32 32 31 31 33 33 31 28 27 26 25 23 23 21 19 18 14 12 8 10 13 11 14 14 14
31 32 31 30 37 39 39 39 39 38 37 37 37 34 33 34 33 32 31 31 31 31 31 31 30 28 25 24 20 19 19 20 18 16 14 11 10 9 11 10 10 21 25 28

GFSCGP_sfc_temp_102.txt.gz
Temp
53 48 46 52 48 51 49 47 46 44 50 48 48 48 52 54 52 53 54 55 55 56 58 59 60 62 62 61 64 65 65 64 64 62 62 64 64 64 64 65 66 66 66 66
49 45 53 55 53 52 49 45 42 44 47 47 45 49 50 51 52 53 55 54 57 56 56 57 58 57 60 60 60 61 65 64 65 65 63 62 64 64 65 65 65 65 65 65
45 49 54 52 49 48 44 44 41 44 45 44 43 43 46 53 51 52 54 53 54 55 55 54 54 55 54 56 57 59 62 64 66 65 65 63 64 64 63 63 63 64 64 64
47 52 51 49 50 52 43 50 48 44 42 37 43 34 41 48 50 50 53 52 54 53 53 53 53 51 51 52 53 55 59 62 64 64 65 65 63 61 63 64 64 64 64 64
46 47 46 47 51 52 48 51 48 44 40 39 35 35 41 41 45 48 51 50 51 52 52 52 50 51 49 52 52 52 55 58 62 64 66 65 63 62 62 63 62 61 58 59
47 49 51 51 51 53 51 48 45 41 38 32 36 37 37 39 46 52 48 50 51 50 49 49 49 50 50 49 50 49 52 54 59 62 62 64 62 60 59 59 58 56 54 54
42 44 46 50 48 49 48 45 32 30 28 29 30 32 42 45 48 49 51 50 48 48 48 47 47 47 48 48 49 50 51 51 54 57 58 61 60 60 57 56 54 52 52 51
38 34 44 49 48 44 42 45 30 23 23 29 33 31 42 47 47 49 50 49 46 46 47 47 47 46 46 47 47 48 48 48 50 52 52 55 56 53 53 53 51 49 46 44
36 37 44 46 47 51 44 40 44 32 18 26 32 36 45 44 47 44 45 46 45 44 45 46 46 45 45 45 45 46 45 46 47 48 49 49 50 49 48 46 46 44 43 45
43 35 41 43 46 46 46 49 38 34 22 21 30 30 37 39 45 45 42 44 43 44 43 43 44 44 44 45 44 45 45 44 44 46 47 46 45 46 44 44 42 41 41 41
43 41 35 42 41 41 42 40 40 40 33 27 22 32 41 47 49 46 44 44 45 43 43 43 43 44 43 43 43 43 43 44 44 45 45 44 43 42 42 41 40 40 39 39
43 38 31 37 41 42 42 44 43 39 32 31 30 35 45 46 48 48 45 46 44 44 44 43 43 42 42 42 42 42 42 42 43 43 43 42 42 41 40 38 38 38 37 37
44 35 26 33 39 40 39 41 44 40 34 31 27 35 45 43 45 45 46 45 45 43 42 42 41 42 42 41 41 41 41 41 41 42 41 40 39 38 37 36 37 36 35 35
50 38 36 34 37 41 37 40 42 42 31 31 33 41 44 44 44 44 45 46 45 44 44 44 43 43 42 42 41 41 41 41 41 40 39 37 36 37 36 35 34 34 34 34
48 33 36 38 42 41 40 41 42 42 47 40 46 38 47 47 46 46 46 45 45 45 45 45 44 43 43 42 42 42 41 39 39 38 37 36 35 35 33 32 32 32 32 32
42 30 37 32 40 41 37 41 43 44 44 44 45 42 50 49 47 46 47 46 46 47 47 47 46 45 43 43 42 42 40 39 39 37 35 34 33 32 31 31 32 32 32 31
39 33 29 34 34 35 31 38 40 43 48 47 41 50 47 47 47 48 47 48 49 49 49 47 47 46 45 44 44 42 41 37 35 33 32 32 31 31 32 32 32 31 31 31
33 33 29 26 29 24 39 45 46 44 45 50 50 46 48 49 51 51 52 51 50 51 50 50 49 49 47 45 43 41 37 34 33 32 32 31 32 31 31 30 30 30 30 30
35 31 23 22 11 30 37 37 39 39 43 47 48 51 46 46 45 47 51 52 52 52 53 52 51 49 45 43 40 37 35 34 33 32 32 32 31 29 28 27 27 28 27 25
35 37 32 10 17 19 36 40 43 47 37 51 49 50 44 44 42 53 50 51 52 52 52 50 49 46 43 41 38 36 34 34 33 33 33 31 29 28 27 28 27 26 25 26
28 26 30 15 14 24 34 36 40 32 39 37 43 47 43 43 53 49 47 47 50 47 45 45 45 42 42 38 37 36 35 34 34 31 30 28 28 26 26 26 25 23 22 22
30 28 26 22 19 25 35 35 39 41 35 36 36 38 40 41 42 39 43 43 41 42 41 42 40 39 37 37 38 35 34 34 31 30 28 26 25 27 25 24 21 20 18 15
31 36 35 36 33 35 34 35 36 38 38 35 35 36 39 39 38 36 38 35 36 37 37 39 39 34 35 37 39 35 34 30 29 28 25 24 24 24 23 21 20 18 14 14
32 34 32 36 34 34 35 35 37 38 37 37 36 35 35 38 37 35 34 34 33 30 33 35 34 34 33 35 36 37 30 29 28 25 23 22 22 21 21 22 21 15 12 9
32 35 32 31 33 34 37 39 39 38 35 36 37 35 37 36 35 34 32 30 29 29 29 33 34 34 33 32 29 30 27 27 25 24 22 21 21 20 18 18 17 17 13 14
32 32 32 31 37 38 37 38 38 36 37 37 35 37 35 34 35 32 29 29 29 28 28 29 30 31 27 27 24 23 25 27 24 21 21 21 19 17 17 16 16 21 25 27